                ,  0.290,  0.386,  0.483,  0.580,  0.676,  0.773,  0.869,  0.966,  1.063,  1.159,  1.256,  1.352,  1.449,  1.545,  1.642,  1.739,  1.835,  1.932,  2.028,  2.125,  2.222,  2.318,  2.415,  2.511,  2.608,  2.705,  2.801,  2.898,  2.994,  3.091,  3.188,  3.284,  3.381,  3.477,  3.574,  3.671,  3.767,  3.864,  3.960,  4.057,  4.153,  4.250,  4.347,  4.443,  4.540,  4.636,  4.733,  4.830,  4.926,  5.023,  5.119,  5.216,  5.313,  5.409,  5.506,  5.602,  5.699,  5.796
2001/03/17 00:00,  999.0,    9.4,    9.8,   10.4,    9.3,    8.1,    6.5,    7.9,    8.2,    7.8,    8.5,    8.7,    7.9,    9.2,  999.0,  999.0,    8.9,  999.0,  999.0,  999.0,   10.9,    7.9,  999.0,  999.0,  999.0,  999.0,  999.0,  999.0,  999.0,  999.0,  999.0,  999.0,  999.0,  999.0,  999.0,  999.0,  999.0,  999.0,  999.0,  999.0,  999.0,  999.0,  999.0,  999.0,   13.4,  999.0,  999.0,  999.0,  999.0,  999.0,  999.0,   19.3,  999.0,  999.0,  999.0,  999.0,  999.0,  999.0
2001/03/17 00:10,  999.0,   10.9,    9.5,    9.6,    8.5,    7.7,    8.7,    8.3,    7.9,    9.8,   10.1,    9.6,    9.2,  999.0,   10.6,    8.3,   10.6,   10.1,   10.4,  999.0,  999.0,  999.0,  999.0,  999.0,  999.0,  999.0,  999.0,  999.0,  999.0,  999.0,  999.0,  999.0,  999.0,    8.7,  999.0,  999.0,  999.0,  999.0,  999.0,  999.0,  999.0,    8.3,  999.0,  999.0,  999.0,  999.0,  999.0,  999.0,  999.0,  999.0,  999.0,  999.0,  999.0,  999.0,  999.0,  999.0,  999.0,  999.0
2001/03/17 00:20,  999.0,    8.9,    9.2,    9.1,    7.8,    6.6,    6.8,    7.9,    9.3,   10.9,   10.6,    9.7,    9.7,    7.9,   10.0,  999.0,   11.6,   11.9,   10.6,    9.2,    8.8,   13.5,  999.0,  999.0,  999.0,  999.0,  999.0,  999.0,  999.0,  999.0,  999.0,  999.0,  999.0,  999.0,  999.0,  999.0,  999.0,   13.5,  999.0,   13.6,   13.6,  999.0,  999.0,  999.0,   13.6,  999.0,  999.0,  999.0,  999.0,  999.0,  999.0,  999.0,  999.0,  999.0,  999.0,  999.0,  999.0,  999.0
2001/03/17 00:30,  999.0,    8.7,    9.0,    9.1,    8.4,    6.9,    7.1,    8.3,   10.5,   11.4,   14.8,   11.0,   11.3,    9.2,    9.6,   10.5,   10.8,   10.5,   10.0,   10.6,   10.4,   10.8,  999.0,  999.0,  999.0,  999.0,  999.0,  999.0,  999.0,  999.0,  999.0,  999.0,  999.0,  999.0,  999.0,  999.0,  999.0,  999.0,  999.0,  999.0,  999.0,  999.0,  999.0,  999.0,  999.0,  999.0,  999.0,  999.0,  999.0,  999.0,  999.0,   13.6,  999.0,  999.0,  999.0,  999.0,  999.0,  999.0
2001/03/17 00:40,  999.0,    9.3,    8.4,    8.2,    7.6,    6.7,    7.5,    9.2,    9.2,   10.4,   10.8,  999.0,  999.0,    9.4,   10.4,    9.6,   10.0,   10.3,   10.5,   11.2,   11.0,   11.5,   10.5,    9.7,    9.9,    9.2,  999.0,  999.0,  999.0,  999.0,   22.6,   23.9,   22.8,  999.0,  999.0,  999.0,   23.1,  999.0,   20.4,  999.0,  999.0,  999.0,  999.0,   21.5,   21.6,   21.2,   21.4,   21.9,  999.0,   20.6,  999.0,  999.0,  999.0,   21.0,  999.0,  999.0,   21.8,   22.4
2001/03/17 00:50,  999.0,    8.0,    8.3,    8.1,    7.5,    7.5,    7.8,    8.1,    9.4,   10.6,   11.5,   10.9,   11.2,  999.0,   10.7,    9.1,    9.8,   10.9,    9.5,  999.0,  999.0,    8.3,  999.0,   11.2,    7.5,    8.4,  999.0,  999.0,  999.0,  999.0,  999.0,  999.0,  999.0,  999.0,  999.0,  999.0,  999.0,   21.6,  999.0,  999.0,  999.0,  999.0,  999.0,  999.0,  999.0,   22.0,  999.0,  999.0,  999.0,  999.0,  999.0,   21.5,  999.0,   21.7,  999.0,  999.0,   21.4,  999.0
2001/03/17 01:00,  999.0,    8.1,    8.5,    7.8,    7.8,    7.8,    7.5,    8.7,   10.3,   11.7,   11.5,   11.4,   11.8,   11.3,   10.7,    9.9,   10.7,   10.1,    9.8,    9.0,    8.9,    8.3,    9.3,    9.1,    8.6,  999.0,    6.9,    8.4,    9.0,  999.0,  999.0,  999.0,  999.0,  999.0,  999.0,  999.0,  999.0,   20.9,  999.0,   21.0,  999.0,  999.0,   21.3,  999.0,  999.0,   21.8,  999.0,   21.0,  999.0,  999.0,   21.2,   21.3,   21.0,   21.9,  999.0,   21.5,  999.0,  999.0
2001/03/17 01:10,  999.0,    8.3,    8.2,    8.4,    8.1,    7.9,    7.3,    8.6,    9.7,   10.9,    9.6,    9.0,    8.9,    9.3,    9.9,   10.2,   10.5,   10.7,    9.3,    9.0,    9.2,    9.2,    9.0,    8.8,    9.5,    9.9,    7.9,   11.3,  999.0,  999.0,  999.0,  999.0,  999.0,  999.0,  999.0,  999.0,  999.0,  999.0,  999.0,  999.0,  999.0,  999.0,  999.0,   20.6,   21.2,  999.0,   21.9,  999.0,  999.0,  999.0,   21.2,  999.0,   21.7,  999.0,   20.3,   20.8,   21.1,   20.5
2001/03/17 01:20,  999.0,    9.1,    9.1,    8.6,    7.9,    7.4,    9.1,    9.7,    9.9,    9.0,    9.4,    8.8,    8.4,    9.1,    8.9,    9.2,    9.5,    9.0,    8.1,    8.0,    6.0,    8.3,  999.0,  999.0,  999.0,    7.6,    8.4,    8.6,    8.4,  999.0,   21.6,  999.0,  999.0,    9.5,  999.0,  999.0,  999.0,  999.0,  999.0,  999.0,   20.4,   21.4,  999.0,   21.1,  999.0,   22.2,  999.0,  999.0,  999.0,  999.0,  999.0,   21.2,   22.2,   20.2,   20.4,  999.0,  999.0,   20.3
2001/03/17 01:30,  999.0,    7.8,    8.0,    7.6,    8.1,    8.1,    9.2,    9.4,    9.5,    9.8,   10.7,   11.1,   10.2,    9.6,   10.0,   10.0,   10.0,    9.7,    8.9,    8.8,  999.0,    9.9,  999.0,  999.0,  999.0,  999.0,  999.0,  999.0,    9.1,  999.0,  999.0,   20.4,  999.0,  999.0,  999.0,   20.5,  999.0,   20.4,   20.5,  999.0,   21.2,   20.2,  999.0,   21.0,   20.8,   21.9,  999.0,   21.2,   20.9,   20.6,   20.5,   21.3,  999.0,   20.0,  999.0,   20.1,  999.0,  999.0
2001/03/17 01:40,  999.0,    7.8,    8.8,    8.5,    8.2,    9.1,    8.3,   10.0,   10.1,   11.0,   11.8,   11.7,   11.3,    9.6,    9.0,    8.2,    8.5,    8.9,   10.5,  999.0,  999.0,  999.0,    7.4,    8.3,    9.8,  999.0,  999.0,  999.0,  999.0,  999.0,  999.0,  999.0,  999.0,  999.0,  999.0,   18.4,  999.0,   20.8,  999.0,   18.9,   20.4,   20.4,   19.0,   18.9,  999.0,  999.0,  999.0,  999.0,   18.5,  999.0,  999.0,  999.0,   18.7,   18.9,  999.0,   19.2,  999.0,   20.0
2001/03/17 01:50,  999.0,    8.3,    8.5,    8.5,    7.8,    7.9,    8.4,    9.3,   10.1,   10.8,   11.2,   12.5,   11.4,   11.1,   10.4,    9.2,    8.0,    8.6,  999.0,  999.0,  999.0,  999.0,  999.0,  999.0,  999.0,  999.0,  999.0,  999.0,  999.0,  999.0,  999.0,  999.0,  999.0,  999.0,  999.0,  999.0,  999.0,  999.0,  999.0,  999.0,  999.0,  999.0,  999.0,  999.0,  999.0,  999.0,  999.0,  999.0,  999.0,  999.0,  999.0,  999.0,  999.0,  999.0,  999.0,  999.0,  999.0,  999.0
2001/03/17 02:00,  999.0,    7.9,    7.8,    8.4,    8.8,    9.1,   10.2,   10.1,    9.0,   10.7,   10.5,   10.4,    8.8,    9.6,   10.5,    9.9,    8.6,    8.8,    9.5,    9.2,  999.0,  999.0,  999.0,  999.0,  999.0,  999.0,  999.0,  999.0,  999.0,  999.0,  999.0,  999.0,  999.0,  999.0,  999.0,  999.0,   19.3,   20.0,  999.0,  999.0,  999.0,   19.6,  999.0,  999.0,  999.0,  999.0,  999.0,  999.0,  999.0,  999.0,  999.0,  999.0,  999.0,  999.0,   21.2,  999.0,  999.0,  999.0
2001/03/17 02:10,  999.0,    6.8,    7.8,    6.7,    7.5,    7.3,    8.0,    9.1,    9.6,    9.8,    9.0,    8.9,    9.4,   10.4,  999.0,    9.0,    9.6,    9.1,  999.0,    8.3,  999.0,  999.0,  999.0,  999.0,  999.0,  999.0,  999.0,  999.0,  999.0,  999.0,  999.0,  999.0,  999.0,  999.0,  999.0,  999.0,  999.0,  999.0,  999.0,  999.0,  999.0,  999.0,  999.0,  999.0,  999.0,  999.0,  999.0,  999.0,  999.0,  999.0,  999.0,  999.0,  999.0,  999.0,  999.0,  999.0,  999.0,  999.0
2001/03/17 02:20,  999.0,    8.1,    7.9,    7.9,    7.6,    8.1,    8.2,    8.8,   10.3,   10.7,    8.9,    9.8,   11.7,    9.7,   10.3,    9.7,    9.5,    9.8,   10.0,    9.0,  999.0,  999.0,  999.0,  999.0,  999.0,  999.0,    9.7,    9.3,  999.0,  999.0,  999.0,  999.0,  999.0,  999.0,  999.0,  999.0,  999.0,  999.0,  999.0,  999.0,  999.0,  999.0,  999.0,  999.0,  999.0,  999.0,  999.0,  999.0,  999.0,  999.0,  999.0,  999.0,  999.0,  999.0,  999.0,  999.0,  999.0,  999.0
2001/03/17 02:30,  999.0,    8.0,    8.4,    8.7,    8.0,    8.0,    8.9,    9.0,    9.6,    9.7,    8.5,    7.9,  999.0,    7.7,    9.8,   10.2,    9.4,    8.8,    9.5,  999.0,  999.0,    8.5,  999.0,  999.0,  999.0,  999.0,  999.0,  999.0,  999.0,  999.0,  999.0,  999.0,  999.0,  999.0,  999.0,  999.0,  999.0,  999.0,  999.0,  999.0,  999.0,  999.0,  999.0,  999.0,  999.0,  999.0,  999.0,  999.0,  999.0,  999.0,  999.0,  999.0,  999.0,  999.0,  999.0,  999.0,  999.0,  999.0
2001/03/17 02:40,  999.0,    8.1,    7.9,    7.6,    7.4,    8.0,    8.5,    9.4,   10.1,    9.3,    9.1,    9.2,    9.0,    7.8,    9.0,    9.8,    9.9,    9.8,    9.4,    9.3,  999.0,   11.6,  999.0,  999.0,  999.0,  999.0,    9.1,    9.4,    9.0,  999.0,  999.0,  999.0,    6.2,  999.0,  999.0,  999.0,  999.0,  999.0,  999.0,  999.0,  999.0,  999.0,  999.0,  999.0,  999.0,  999.0,  999.0,  999.0,  999.0,  999.0,  999.0,  999.0,  999.0,  999.0,  999.0,  999.0,  999.0,  999.0
2001/03/17 02:50,  999.0,    8.5,    8.3,    7.2,    6.7,    7.3,    8.2,    8.0,    8.5,    8.9,  999.0,    7.0,    6.5,    7.0,    8.6,    9.4,    9.9,    9.6,    9.3,    9.7,    9.9,   10.0,  999.0,  999.0,    9.3,    7.8,  999.0,  999.0,  999.0,  999.0,  999.0,    5.7,  999.0,  999.0,  999.0,  999.0,  999.0,  999.0,   10.7,  999.0,  999.0,  999.0,  999.0,  999.0,  999.0,  999.0,  999.0,  999.0,  999.0,  999.0,  999.0,  999.0,  999.0,  999.0,  999.0,  999.0,  999.0,  999.0
2001/03/17 03:00,  999.0,    9.7,    8.3,    8.1,    7.4,    7.4,    7.3,    8.2,    9.0,  999.0,    7.4,    8.3,    9.7,    9.3,    8.9,    9.6,   10.4,   10.4,    8.2,  999.0,  999.0,  999.0,  999.0,  999.0,   10.2,  999.0,  999.0,   10.3,   10.5,  999.0,  999.0,  999.0,  999.0,  999.0,  999.0,  999.0,  999.0,  999.0,  999.0,  999.0,  999.0,  999.0,  999.0,  999.0,  999.0,  999.0,  999.0,  999.0,  999.0,  999.0,  999.0,  999.0,  999.0,  999.0,  999.0,  999.0,  999.0,   10.5
2001/03/17 03:10,  999.0,    8.5,    8.6,    8.2,    7.5,    6.9,    6.9,    8.0,    9.1,    8.2,    8.4,    9.3,   10.1,    9.9,    9.0,   10.1,  999.0,   10.0,   10.1,   10.0,    8.9,  999.0,  999.0,  999.0,  999.0,    8.9,  999.0,  999.0,   10.0,    8.5,    7.9,  999.0,  999.0,  999.0,  999.0,  999.0,  999.0,  999.0,  999.0,  999.0,  999.0,  999.0,  999.0,  999.0,  999.0,  999.0,  999.0,  999.0,  999.0,  999.0,  999.0,  999.0,  999.0,  999.0,  999.0,  999.0,  999.0,  999.0
2001/03/17 03:20,  999.0,    9.3,    9.3,    9.0,    8.3,    7.4,    6.7,    7.1,   10.1,    9.9,    8.4,    9.0,    9.9,   11.4,   10.4,   10.3,  999.0,  999.0,  999.0,  999.0,  999.0,  999.0,  999.0,    9.6,  999.0,  999.0,  999.0,  999.0,  999.0,    7.2,    7.9,    7.1,  999.0,  999.0,    8.1,  999.0,    7.4,    6.8,  999.0,  999.0,  999.0,  999.0,  999.0,    8.5,  999.0,  999.0,  999.0,  999.0,  999.0,  999.0,  999.0,  999.0,  999.0,  999.0,  999.0,  999.0,  999.0,  999.0
2001/03/17 03:30,  999.0,    8.5,    8.5,    8.4,    7.7,    6.3,    7.0,    8.2,   10.0,   10.7,    9.7,   11.5,   11.6,   10.1,   10.1,    9.9,  999.0,  999.0,  999.0,  999.0,  999.0,  999.0,  999.0,  999.0,  999.0,  999.0,  999.0,  999.0,  999.0,  999.0,  999.0,  999.0,  999.0,  999.0,  999.0,  999.0,  999.0,  999.0,  999.0,  999.0,  999.0,  999.0,  999.0,  999.0,  999.0,  999.0,    8.9,  999.0,  999.0,  999.0,  999.0,  999.0,  999.0,  999.0,  999.0,  999.0,  999.0,  999.0
2001/03/17 03:40,  999.0,    7.8,    8.0,    7.3,    6.8,    6.6,    9.1,   10.2,   10.3,   10.2,   10.9,   11.6,   11.4,   10.2,   10.7,    9.2,    9.5,   10.2,  999.0,  999.0,  999.0,  999.0,  999.0,  999.0,  999.0,  999.0,  999.0,  999.0,  999.0,  999.0,  999.0,  999.0,  999.0,  999.0,  999.0,  999.0,  999.0,  999.0,  999.0,  999.0,  999.0,  999.0,  999.0,  999.0,  999.0,  999.0,  999.0,  999.0,  999.0,  999.0,  999.0,  999.0,  999.0,  999.0,  999.0,  999.0,  999.0,  999.0
2001/03/17 03:50,  999.0,    7.4,    7.8,    7.6,    7.0,    7.2,    8.9,    9.8,   11.1,   10.7,   11.3,   11.1,   10.5,   10.7,   11.2,   10.4,    9.9,    9.3,  999.0,  999.0,  999.0,  999.0,  999.0,  999.0,  999.0,  999.0,  999.0,  999.0,  999.0,  999.0,  999.0,  999.0,  999.0,  999.0,  999.0,   10.0,   10.7,  999.0,  999.0,  999.0,  999.0,  999.0,  999.0,  999.0,  999.0,  999.0,  999.0,  999.0,  999.0,  999.0,  999.0,  999.0,  999.0,  999.0,  999.0,  999.0,  999.0,  999.0
2001/03/17 04:00,  999.0,    8.2,    8.2,    8.2,    8.4,    7.6,    8.3,    9.8,   11.3,   11.5,   10.7,   10.5,   10.8,   10.7,   10.3,   10.6,   10.3,    9.6,    9.7,  999.0,   10.2,   10.5,  999.0,  999.0,  999.0,  999.0,  999.0,  999.0,  999.0,  999.0,  999.0,  999.0,  999.0,  999.0,  999.0,  999.0,  999.0,  999.0,  999.0,  999.0,  999.0,  999.0,  999.0,  999.0,  999.0,  999.0,  999.0,  999.0,  999.0,  999.0,  999.0,  999.0,  999.0,  999.0,  999.0,  999.0,  999.0,  999.0
2001/03/17 04:10,  999.0,    9.1,    9.1,    9.1,    8.8,    8.0,    8.3,    9.3,   10.5,   11.8,   12.3,   11.8,   10.2,   10.3,   10.8,   10.9,   10.0,  999.0,  999.0,  999.0,  999.0,    7.6,    8.9,    9.3,  999.0,  999.0,  999.0,  999.0,  999.0,  999.0,  999.0,  999.0,  999.0,  999.0,  999.0,  999.0,  999.0,  999.0,  999.0,  999.0,  999.0,  999.0,  999.0,  999.0,  999.0,  999.0,  999.0,  999.0,  999.0,  999.0,  999.0,  999.0,  999.0,  999.0,  999.0,  999.0,  999.0,  999.0
2001/03/17 04:20,  999.0,    9.1,    9.2,    9.5,    8.9,    8.1,    8.8,   10.0,   11.3,   11.6,   10.6,   10.1,    9.8,    9.9,   10.3,   10.0,   10.8,   10.3,   10.6,  999.0,  999.0,  999.0,  999.0,  999.0,  999.0,  999.0,  999.0,  999.0,  999.0,  999.0,  999.0,  999.0,  999.0,  999.0,  999.0,  999.0,  999.0,  999.0,  999.0,  999.0,  999.0,  999.0,  999.0,  999.0,  999.0,  999.0,  999.0,  999.0,  999.0,  999.0,  999.0,  999.0,  999.0,  999.0,  999.0,  999.0,  999.0,  999.0
2001/03/17 04:30,  999.0,    8.2,   10.4,    9.6,    8.9,    8.2,    9.4,   10.2,   11.0,   11.0,    9.7,    8.9,    9.0,    9.5,   10.6,   11.0,    9.9,    9.6,    9.3,  999.0,  999.0,  999.0,  999.0,  999.0,  999.0,  999.0,  999.0,  999.0,  999.0,  999.0,  999.0,  999.0,  999.0,  999.0,  999.0,  999.0,  999.0,  999.0,  999.0,  999.0,  999.0,  999.0,  999.0,  999.0,  999.0,  999.0,  999.0,  999.0,  999.0,  999.0,  999.0,  999.0,  999.0,  999.0,  999.0,  999.0,  999.0,  999.0
2001/03/17 04:40,  999.0,  999.0,   11.0,    9.4,    8.5,    9.0,   10.3,    8.8,    8.1,    8.6,    9.6,   10.2,   10.4,   10.8,   10.9,    9.9,    8.8,    8.6,    9.4,   10.0,  999.0,  999.0,  999.0,  999.0,  999.0,  999.0,  999.0,  999.0,  999.0,  999.0,  999.0,  999.0,  999.0,  999.0,  999.0,  999.0,  999.0,  999.0,  999.0,  999.0,  999.0,  999.0,  999.0,  999.0,  999.0,  999.0,  999.0,  999.0,  999.0,  999.0,  999.0,  999.0,  999.0,  999.0,  999.0,  999.0,  999.0,  999.0
2001/03/17 04:50,  999.0,    9.2,    9.0,    8.6,    7.6,    8.3,    7.4,    7.5,    9.4,   10.2,   10.3,   10.1,   11.5,   11.9,   11.2,   11.1,   11.0,   10.4,   10.1,    9.3,  999.0,    9.4,  999.0,  999.0,  999.0,  999.0,  999.0,  999.0,  999.0,  999.0,  999.0,  999.0,  999.0,  999.0,  999.0,  999.0,  999.0,  999.0,  999.0,  999.0,  999.0,  999.0,  999.0,  999.0,  999.0,  999.0,  999.0,  999.0,  999.0,  999.0,  999.0,  999.0,  999.0,  999.0,  999.0,  999.0,  999.0,  999.0
2001/03/17 05:00,  999.0,    8.2,    8.5,    8.1,    8.1,    7.8,    8.4,    9.8,   11.1,   12.0,   11.1,   11.1,   10.8,   11.4,   11.7,   11.6,  999.0,    8.4,   10.1,    8.6,    8.4,    6.7,    8.9,  999.0,  999.0,  999.0,  999.0,  999.0,  999.0,    6.4,  999.0,  999.0,   10.6,  999.0,   10.9,  999.0,  999.0,  999.0,  999.0,  999.0,  999.0,  999.0,  999.0,  999.0,  999.0,  999.0,  999.0,  999.0,  999.0,  999.0,  999.0,  999.0,  999.0,  999.0,  999.0,  999.0,  999.0,  999.0
2001/03/17 05:10,  999.0,    9.1,    8.3,    8.8,    7.7,    7.7,    8.7,   10.4,   11.4,   11.7,   11.9,   11.8,   12.5,   10.7,   11.9,   11.1,   12.0,   10.3,    9.0,    8.7,    8.8,    8.4,    7.8,    7.7,    6.6,    5.0,    7.9,  999.0,  999.0,  999.0,  999.0,  999.0,  999.0,  999.0,  999.0,  999.0,  999.0,  999.0,  999.0,  999.0,  999.0,  999.0,  999.0,  999.0,  999.0,  999.0,  999.0,  999.0,  999.0,  999.0,  999.0,  999.0,  999.0,  999.0,  999.0,  999.0,  999.0,  999.0
2001/03/17 05:20,  999.0,    8.5,    8.2,    8.3,    7.3,    6.9,    7.6,    9.6,   11.0,   11.8,   10.9,   11.2,    9.8,   10.1,   11.5,   10.6,   10.7,   11.4,  999.0,  999.0,  999.0,  999.0,  999.0,  999.0,  999.0,  999.0,  999.0,  999.0,  999.0,  999.0,  999.0,  999.0,  999.0,  999.0,  999.0,  999.0,  999.0,  999.0,  999.0,  999.0,  999.0,  999.0,  999.0,  999.0,  999.0,  999.0,  999.0,  999.0,  999.0,  999.0,  999.0,  999.0,  999.0,  999.0,  999.0,  999.0,  999.0,  999.0
2001/03/17 05:30,  999.0,    8.1,    8.0,    7.5,    7.3,    6.9,   10.7,   10.7,   11.7,   11.0,   10.6,    9.6,    9.9,    9.8,  999.0,    9.1,   10.3,   10.0,    9.9,    9.7,    9.4,    8.5,    5.9,    7.1,    6.9,    4.5,  999.0,  999.0,  999.0,  999.0,  999.0,    4.3,    5.5,  999.0,  999.0,  999.0,  999.0,  999.0,  999.0,  999.0,  999.0,  999.0,  999.0,  999.0,  999.0,  999.0,  999.0,  999.0,  999.0,  999.0,  999.0,  999.0,  999.0,  999.0,  999.0,  999.0,  999.0,  999.0
2001/03/17 05:40,  999.0,    7.6,    6.9,    5.6,    5.4,    7.8,   10.3,   11.0,   11.5,   11.1,   11.9,   10.6,   11.0,   10.3,  999.0,   10.5,   10.3,    9.1,    8.1,    8.7,    8.3,    8.8,    9.6,    8.7,    7.9,    5.7,    3.8,  999.0,  999.0,  999.0,  999.0,  999.0,  999.0,    6.8,  999.0,  999.0,  999.0,  999.0,  999.0,  999.0,  999.0,  999.0,  999.0,  999.0,  999.0,  999.0,  999.0,  999.0,  999.0,  999.0,  999.0,  999.0,  999.0,  999.0,  999.0,  999.0,  999.0,  999.0
2001/03/17 05:50,  999.0,    7.8,    7.4,    7.8,    8.1,    9.0,    9.2,    9.4,    9.5,    8.7,    9.0,    9.3,    9.5,    9.0,    9.3,    9.2,    9.4,    9.6,   10.1,    9.2,    8.7,    8.4,    8.5,    9.9,    9.7,    7.5,    5.6,    3.9,    1.3,  999.0,    1.0,  999.0,  999.0,  999.0,  999.0,  999.0,  999.0,  999.0,  999.0,  999.0,  999.0,  999.0,  999.0,  999.0,  999.0,  999.0,  999.0,  999.0,  999.0,  999.0,  999.0,  999.0,  999.0,  999.0,  999.0,  999.0,  999.0,  999.0
2001/03/17 06:00,  999.0,    7.3,    7.8,    8.5,    8.8,    9.5,    9.4,    8.6,    8.6,    8.7,    9.2,    8.8,   10.1,    9.9,   10.2,   11.4,   10.9,  999.0,    9.5,    9.2,    8.5,    8.4,    8.5,    8.2,    6.9,  999.0,  999.0,    2.4,    2.2,  999.0,  999.0,  999.0,    4.9,  999.0,  999.0,    3.6,  999.0,  999.0,  999.0,  999.0,  999.0,  999.0,  999.0,  999.0,  999.0,  999.0,  999.0,  999.0,  999.0,  999.0,  999.0,  999.0,  999.0,  999.0,  999.0,  999.0,  999.0,  999.0
2001/03/17 06:10,  999.0,    7.1,    7.5,    7.6,    8.8,    8.0,    9.1,    9.0,    8.3,   10.0,   10.0,    9.2,    9.0,   10.6,    9.9,    9.3,    8.9,    9.3,    8.4,    9.7,    8.4,  999.0,  999.0,  999.0,  999.0,  999.0,  999.0,  999.0,  999.0,  999.0,  999.0,  999.0,  999.0,  999.0,  999.0,  999.0,  999.0,  999.0,  999.0,  999.0,  999.0,  999.0,  999.0,  999.0,  999.0,  999.0,  999.0,  999.0,  999.0,  999.0,  999.0,  999.0,  999.0,  999.0,  999.0,  999.0,  999.0,  999.0
2001/03/17 06:20,  999.0,    8.3,    4.9,    7.6,  999.0,  999.0,    2.8,    8.9,    9.3,    9.3,   10.8,   10.2,   10.0,    9.6,    9.1,    9.6,   10.7,   11.1,    9.8,   10.4,  999.0,  999.0,    9.8,    9.5,    9.7,    6.9,    7.2,    4.9,    2.9,    2.7,  999.0,    0.1,  999.0,  999.0,  999.0,  999.0,  999.0,  999.0,  999.0,  999.0,  999.0,  999.0,  999.0,  999.0,  999.0,  999.0,  999.0,  999.0,  999.0,  999.0,  999.0,  999.0,  999.0,  999.0,  999.0,  999.0,  999.0,  999.0
2001/03/17 06:30,  999.0,    7.8,    7.8,    8.5,  999.0,  999.0,    1.3,    0.6,   10.1,   11.5,   10.4,   10.1,   12.0,   12.0,   12.4,   10.8,    8.7,    9.4,    8.3,    8.9,    9.7,  999.0,  999.0,  999.0,  999.0,    7.3,    5.3,    4.2,    3.8,  999.0,  999.0,  999.0,  999.0,  999.0,  999.0,  999.0,  999.0,  999.0,  999.0,  999.0,  999.0,  999.0,  999.0,  999.0,  999.0,  999.0,  999.0,  999.0,  999.0,  999.0,  999.0,  999.0,  999.0,  999.0,    7.9,    7.9,  999.0,  999.0
2001/03/17 06:40,  999.0,    1.4,    6.2,    8.9,    9.9,  999.0,  999.0,  999.0,   11.8,    9.9,   12.7,   11.3,   12.4,   12.5,   11.1,   10.9,   11.6,    8.5,    8.0,    8.2,    9.4,  999.0,  999.0,    7.6,    8.6,  999.0,    6.1,    5.8,  999.0,  999.0,  999.0,  999.0,  999.0,  999.0,  999.0,  999.0,  999.0,  999.0,  999.0,  999.0,  999.0,  999.0,  999.0,  999.0,  999.0,  999.0,  999.0,  999.0,  999.0,  999.0,  999.0,  999.0,  999.0,  999.0,  999.0,  999.0,  999.0,  999.0
2001/03/17 06:50,  999.0,    6.8,    4.5,    3.8,    0.8,   -3.7,  999.0,  999.0,   13.5,   10.8,   11.7,   14.2,   13.8,   13.3,   13.2,   10.4,   10.8,   10.4,    9.9,    9.5,    8.9,    8.9,    8.1,    8.2,  999.0,    6.1,    5.3,    3.2,  999.0,  999.0,  999.0,  999.0,  999.0,  999.0,  999.0,  999.0,  999.0,  999.0,  999.0,  999.0,  999.0,  999.0,  999.0,  999.0,  999.0,  999.0,    8.5,  999.0,  999.0,  999.0,  999.0,  999.0,  999.0,  999.0,  999.0,  999.0,  999.0,  999.0
2001/03/17 07:00,  999.0,    5.9,    3.8,    3.2,    6.6,    7.8,   11.5,   14.1,   16.7,   13.0,   12.2,   11.1,   10.7,   11.6,   11.7,   13.0,   10.8,   11.2,    7.6,  999.0,    8.2,    7.1,    7.5,    7.2,  999.0,  999.0,    4.2,    4.2,  999.0,  999.0,  999.0,    5.0,  999.0,  999.0,  999.0,  999.0,  999.0,  999.0,  999.0,  999.0,  999.0,  999.0,  999.0,  999.0,  999.0,    2.7,   -2.2,    1.8,  999.0,  999.0,  999.0,  999.0,  999.0,   -1.0,   -0.5,   -0.2,   -0.2,   -0.4
2001/03/17 07:10,  999.0,    4.7,    5.2,    7.8,    9.0,    7.6,   10.0,   10.1,   10.1,  999.0,    6.8,   10.2,   11.2,   11.8,   10.6,   10.1,   10.8,   10.3,   11.0,    8.2,    7.5,    8.0,    8.6,  999.0,  999.0,  999.0,    5.1,    4.7,  999.0,  999.0,  999.0,  999.0,  999.0,  999.0,  999.0,  999.0,  999.0,  999.0,  999.0,  999.0,  999.0,  999.0,    0.9,  999.0,  999.0,  999.0,  999.0,  999.0,  999.0,    0.1,  999.0,   -2.3,   -1.0,   -0.8,   -0.4,    0.5,    1.0,    1.3
2001/03/17 07:20,  999.0,    4.4,    5.7,    6.4,    9.7,   10.8,   12.0,   13.0,   12.8,   12.2,   12.2,    8.4,  999.0,   10.9,   10.1,   10.0,  999.0,  999.0,  999.0,    9.3,    8.9,    9.4,   11.1,    8.2,  999.0,    5.3,    4.6,    4.2,  999.0,  999.0,  999.0,  999.0,  999.0,  999.0,  999.0,  999.0,  999.0,  999.0,  999.0,  999.0,  999.0,  999.0,  999.0,  999.0,  999.0,   -0.5,  999.0,  999.0,  999.0,  999.0,  999.0,  999.0,   -0.8,  999.0,  999.0,  999.0,  999.0,  999.0
2001/03/17 07:30,  999.0,    5.3,    5.8,    7.2,    8.5,    9.7,   10.4,   11.4,   11.8,   11.2,   11.0,   11.5,   11.2,   13.0,   10.7,   10.1,  999.0,  999.0,    8.7,  999.0,    8.3,  999.0,  999.0,  999.0,  999.0,  999.0,  999.0,  999.0,  999.0,  999.0,  999.0,  999.0,  999.0,  999.0,  999.0,  999.0,  999.0,  999.0,  999.0,  999.0,  999.0,  999.0,  999.0,  999.0,  999.0,  999.0,  999.0,  999.0,  999.0,  999.0,  999.0,  999.0,  999.0,  999.0,  999.0,  999.0,  999.0,  999.0
2001/03/17 07:40,  999.0,    6.6,    6.9,    6.7,    7.8,    9.1,    9.9,   12.4,  999.0,  999.0,   11.9,   12.4,   11.1,   11.4,   11.5,   11.2,   10.7,  999.0,  999.0,    8.5,    7.7,    8.1,  999.0,    6.0,    6.2,  999.0,    2.4,    3.1,  999.0,  999.0,  999.0,  999.0,  999.0,  999.0,  999.0,  999.0,  999.0,    1.7,  999.0,  999.0,  999.0,  999.0,  999.0,  999.0,  999.0,  999.0,  999.0,  999.0,   -6.9,  999.0,  999.0,  999.0,  999.0,  999.0,  999.0,  999.0,  999.0,  999.0
2001/03/17 07:50,  999.0,    5.4,    7.5,    7.8,    8.2,    9.0,   10.6,   11.7,   11.6,   10.8,   10.6,   11.0,   10.7,   10.4,   11.4,  999.0,  999.0,  999.0,  999.0,    8.2,    8.7,    7.8,  999.0,    8.2,  999.0,  999.0,  999.0,  999.0,  999.0,  999.0,  999.0,  999.0,  999.0,  999.0,  999.0,  999.0,  999.0,  999.0,  999.0,  999.0,  999.0,  999.0,  999.0,  999.0,  999.0,  999.0,  999.0,  999.0,  999.0,  999.0,  999.0,  999.0,  999.0,  999.0,  999.0,  999.0,  999.0,  999.0
2001/03/17 08:00,  999.0,    6.3,    6.3,    6.8,    7.3,    9.2,   10.3,   10.5,   10.3,   10.4,   10.6,   11.0,  999.0,    6.8,    5.2,  999.0,  999.0,  999.0,  999.0,    6.9,    6.5,  999.0,  999.0,  999.0,    4.6,    3.4,  999.0,  999.0,    0.5,  999.0,  999.0,  999.0,  999.0,  999.0,  999.0,  999.0,  999.0,  999.0,  999.0,  999.0,  999.0,  999.0,  999.0,  999.0,  999.0,  999.0,  999.0,  999.0,  999.0,  999.0,  999.0,  999.0,  999.0,  999.0,  999.0,  999.0,  999.0,  999.0
2001/03/17 08:10,  999.0,    4.5,    3.2,    5.9,    7.6,    9.3,   10.1,    9.4,    9.9,   11.3,  999.0,    8.7,  999.0,  999.0,  999.0,    9.7,    9.3,  999.0,  999.0,  999.0,    8.6,    9.3,  999.0,  999.0,  999.0,  999.0,  999.0,  999.0,  999.0,  999.0,  999.0,  999.0,  999.0,  999.0,  999.0,  999.0,  999.0,  999.0,  999.0,  999.0,  999.0,  999.0,  999.0,  999.0,  999.0,  999.0,  999.0,  999.0,  999.0,  999.0,  999.0,  999.0,  999.0,  999.0,  999.0,  999.0,  999.0,  999.0
2001/03/17 08:20,  999.0,    3.0,    4.7,    6.1,    8.0,    9.6,   11.6,   11.1,  999.0,  999.0,    9.9,  999.0,    5.6,  999.0,    8.3,  999.0,    8.3,  999.0,  999.0,  999.0,    7.0,    7.3,    6.9,  999.0,    5.0,  999.0,  999.0,  999.0,  999.0,  999.0,  999.0,  999.0,  999.0,  999.0,  999.0,  999.0,  999.0,  999.0,  999.0,  999.0,  999.0,  999.0,  999.0,  999.0,  999.0,  999.0,  999.0,  999.0,  999.0,  999.0,  999.0,  999.0,  999.0,  999.0,  999.0,  999.0,  999.0,  999.0
2001/03/17 08:30,  999.0,    5.5,    4.0,    7.3,    8.7,    8.7,    8.6,   10.2,    7.5,    9.5,    9.7,    8.9,    9.5,   10.1,  999.0,  999.0,    7.7,   10.9,  999.0,  999.0,  999.0,    6.1,  999.0,  999.0,  999.0,  999.0,  999.0,  999.0,  999.0,  999.0,  999.0,  999.0,  999.0,  999.0,  999.0,  999.0,  999.0,  999.0,  999.0,  999.0,  999.0,  999.0,  999.0,  999.0,  999.0,  999.0,  999.0,  999.0,  999.0,  999.0,  999.0,  999.0,  999.0,  999.0,  999.0,  999.0,  999.0,  999.0
2001/03/17 08:40,  999.0,    2.7,    5.2,    6.8,    7.1,    4.7,    9.1,    9.2,   11.9,    9.6,  999.0,  999.0,    6.5,    5.6,  999.0,  999.0,  999.0,  999.0,    5.5,  999.0,    8.7,  999.0,  999.0,    7.7,  999.0,    2.1,  999.0,  999.0,  999.0,  999.0,  999.0,  999.0,  999.0,  999.0,  999.0,  999.0,  999.0,  999.0,  999.0,  999.0,  999.0,  999.0,  999.0,  999.0,  999.0,  999.0,  999.0,  999.0,  999.0,  999.0,  999.0,  999.0,  999.0,  999.0,  999.0,  999.0,  999.0,  999.0
2001/03/17 08:50,  999.0,    3.7,    4.1,    5.2,    5.9,    6.6,    6.6,    7.7,    9.3,   12.1,  999.0,    4.3,   10.5,    5.9,  999.0,    7.7,  999.0,  999.0,  999.0,  999.0,  999.0,  999.0,  999.0,  999.0,  999.0,  999.0,  999.0,  999.0,  999.0,  999.0,  999.0,  999.0,  999.0,  999.0,  999.0,  999.0,  999.0,  999.0,  999.0,  999.0,  999.0,  999.0,  999.0,  999.0,  999.0,  999.0,  999.0,  999.0,  999.0,  999.0,  999.0,  999.0,  999.0,  999.0,  999.0,  999.0,  999.0,  999.0
2001/03/17 09:00,  999.0,    3.8,    4.7,    4.9,    7.0,    7.5,    6.3,    6.1,    7.6,    9.9,  999.0,    9.9,  999.0,    7.8,    9.3,    9.7,    8.0,    7.4,  999.0,  999.0,   14.0,  999.0,  999.0,  999.0,  999.0,    2.6,  999.0,  999.0,  999.0,  999.0,  999.0,  999.0,  999.0,  999.0,  999.0,  999.0,  999.0,  999.0,  999.0,  999.0,  999.0,  999.0,  999.0,  999.0,  999.0,  999.0,  999.0,   -0.8,   -0.7,   -1.4,   -1.1,  999.0,   -0.5,  999.0,  999.0,   -1.1,  999.0,   -1.2
2001/03/17 09:10,  999.0,    3.7,    6.9,    4.5,    5.7,    6.7,    6.3,    5.8,    5.7,    9.6,    8.6,   10.9,    8.3,    8.4,    8.7,    8.7,  999.0,  999.0,  999.0,  999.0,  999.0,  999.0,  999.0,  999.0,  999.0,  999.0,  999.0,  999.0,  999.0,  999.0,  -22.5,  999.0,  -22.4,  999.0,  999.0,  999.0,  999.0,  999.0,  -22.9,  999.0,  999.0,  -23.1,  999.0,  -23.2,    0.1,  999.0,  -22.1,  999.0,   -0.5,  999.0,  -22.7,   -1.5,  999.0,  999.0,  999.0,   -1.6,  999.0,  999.0
2001/03/17 09:20,  999.0,    5.4,    4.7,    6.1,    7.0,    6.9,    7.0,    6.9,    7.8,    7.5,    6.9,    7.6,    8.0,  999.0,  999.0,  999.0,  999.0,  999.0,  999.0,  999.0,  999.0,  999.0,  999.0,  999.0,  999.0,  999.0,  999.0,  999.0,  999.0,  999.0,  999.0,  999.0,  999.0,  999.0,  999.0,  999.0,  999.0,  999.0,  999.0,  999.0,  999.0,   -5.4,  999.0,  999.0,   -3.3,  999.0,   -1.7,   -1.5,  999.0,  999.0,  999.0,   -0.9,  999.0,  999.0,  999.0,   -1.0,  999.0,  999.0
2001/03/17 09:30,  999.0,    5.0,    4.5,    4.6,    5.0,    3.7,    3.8,    4.5,    5.4,    7.8,    8.7,    7.6,    5.4,    7.9,   10.2,    7.7,    8.3,    8.1,  999.0,  999.0,  999.0,  999.0,  999.0,   12.2,  999.0,  999.0,  999.0,  999.0,  999.0,  999.0,   11.7,  999.0,  999.0,  999.0,  999.0,  999.0,  999.0,  999.0,  999.0,  999.0,  999.0,  999.0,  999.0,  999.0,  999.0,  999.0,  999.0,  999.0,   32.7,   -0.7,  999.0,  999.0,   -1.3,   -0.5,   -0.9,  999.0,   -0.5,  999.0
2001/03/17 09:40,  999.0,    3.5,    1.5,    0.3,    4.9,    4.6,    0.5,    3.5,    4.0,    6.1,    5.8,    7.2,    7.3,    7.4,    9.1,  999.0,  999.0,  999.0,  999.0,  999.0,   10.9,   12.1,  999.0,  999.0,  999.0,  999.0,  999.0,  999.0,  999.0,  999.0,  999.0,  999.0,  999.0,  999.0,  999.0,  999.0,  999.0,  999.0,  999.0,  999.0,  999.0,  999.0,  999.0,  999.0,  999.0,   -1.2,  999.0,   -0.7,  999.0,  999.0,   -0.9,  999.0,   -1.2,   -1.7,   -0.7,    0.3,  999.0,  999.0
2001/03/17 09:50,  999.0,    2.6,    4.3,    4.4,    4.5,    4.5,    4.9,    6.2,    6.3,    5.3,    5.3,    6.6,    9.2,    9.1,    9.6,   10.0,    8.9,    8.9,    9.3,    8.0,    9.1,    9.4,   10.2,   13.0,  999.0,  999.0,  999.0,  999.0,  999.0,  999.0,  999.0,  999.0,  999.0,  999.0,  999.0,  999.0,  999.0,  999.0,  999.0,  999.0,  999.0,  999.0,   -1.2,  999.0,  999.0,   -0.1,  999.0,   -0.2,  999.0,   -0.5,   -0.5,  999.0,   -0.6,   -0.9,   -0.3,  999.0,  999.0,  999.0
2001/03/17 10:00,  999.0,    5.3,    5.1,    5.2,    5.2,    5.8,    6.5,    6.5,    6.2,    6.6,    6.2,    6.5,    7.2,    7.1,    8.6,  999.0,  999.0,    9.7,  999.0,  999.0,    9.1,    9.7,   10.7,   11.1,   14.3,  999.0,  999.0,  999.0,  999.0,  999.0,  999.0,  999.0,  999.0,  999.0,  999.0,  999.0,  999.0,  999.0,  999.0,  999.0,  999.0,  999.0,  999.0,    0.2,  999.0,  999.0,  999.0,   -0.7,  999.0,   -0.1,  999.0,   -0.7,  999.0,  999.0,   -0.7,  999.0,  999.0,   -0.1
2001/03/17 10:10,  999.0,    3.1,    4.1,    4.7,    4.3,    4.6,    4.0,    5.5,    6.6,    7.5,    7.6,    7.7,    7.8,    8.1,    8.8,   10.7,   10.1,   12.1,   13.7,   11.2,   12.8,   12.9,   13.7,   17.0,   17.9,  999.0,  999.0,  999.0,  999.0,  999.0,  999.0,   12.7,  999.0,  999.0,  999.0,  999.0,  999.0,  999.0,  999.0,  999.0,  999.0,  999.0,  999.0,  999.0,   -1.5,  999.0,   -1.0,  999.0,  999.0,   -0.3,    0.4,  999.0,   -0.9,  999.0,   -1.1,   -1.1,   -1.1,   -0.9
2001/03/17 10:20,  999.0,    4.4,    4.3,    4.6,    4.6,    5.2,    5.3,    4.2,    5.6,    6.9,    7.1,    6.9,    8.4,    9.0,    7.9,    8.3,    6.8,   11.0,   11.6,  999.0,   10.8,   14.4,   14.9,   18.6,   15.6,  999.0,  999.0,  999.0,  999.0,  999.0,  999.0,  999.0,  999.0,  999.0,  999.0,  999.0,  999.0,  999.0,  999.0,  999.0,  999.0,   -0.7,   -0.6,   -0.4,   -0.7,   -0.5,    0.3,   -0.3,   -1.1,   -0.8,   -0.8,   -0.4,   -0.9,   -1.2,   -0.4,   -0.8,   -0.6,   -0.5
2001/03/17 10:30,  999.0,    4.6,    5.2,    5.2,    6.1,    5.0,    4.9,    5.2,    5.2,    8.1,    6.5,    7.0,   10.0,    9.0,   10.4,    9.3,   13.4,   11.0,   10.1,   16.8,   14.2,   14.0,   12.0,  999.0,   21.4,  999.0,  999.0,  999.0,  999.0,   11.9,  999.0,  999.0,  999.0,  999.0,  999.0,  999.0,  999.0,  999.0,  999.0,  999.0,  999.0,   -0.6,  999.0,   -0.9,    0.0,   -0.5,   -0.0,   -0.6,   -1.1,   -0.6,   -1.5,  999.0,   -0.7,   -1.5,   -1.1,   -0.7,   -0.8,   -1.5
2001/03/17 10:40,  999.0,    5.4,    4.0,    3.6,    3.7,    4.2,    4.6,    5.3,    5.1,    6.9,    7.3,    7.4,    7.4,    7.1,    7.0,    7.1,    7.7,    8.1,    6.8,    7.0,    8.7,   11.3,  999.0,  999.0,  999.0,  999.0,  999.0,  999.0,  999.0,  999.0,  999.0,  999.0,  999.0,  999.0,  999.0,  999.0,  999.0,  999.0,  999.0,  999.0,    2.2,  999.0,   -0.9,   -0.9,  999.0,   -0.6,    0.1,   -0.9,  999.0,   -1.0,   -0.8,   -0.8,   -1.3,  999.0,   -0.6,  999.0,   -0.5,  999.0
2001/03/17 10:50,  999.0,    2.6,    4.0,    3.2,    4.2,    2.6,    2.5,    5.0,    5.6,    6.1,    5.0,    6.7,    6.3,    6.5,    7.0,    7.5,    7.9,    7.3,    6.5,    6.8,    7.8,    9.3,   10.4,  999.0,  999.0,  999.0,  999.0,  999.0,    8.2,  999.0,  999.0,  999.0,  999.0,   14.9,  999.0,  999.0,  999.0,  999.0,  999.0,  999.0,  999.0,  999.0,  999.0,  999.0,  999.0,  999.0,  999.0,   -0.9,   -0.9,   -1.0,   -0.7,  999.0,  999.0,   -0.8,   -1.2,  999.0,   -1.0,  999.0
2001/03/17 11:00,  999.0,    4.3,    3.5,    3.7,    4.6,    5.3,    5.4,    5.7,    6.5,    6.9,    6.6,    6.1,    5.2,    5.2,    5.8,    6.7,    5.9,    7.5,    7.2,    6.8,    6.7,    5.7,    8.5,    9.9,  999.0,  999.0,  999.0,  999.0,  999.0,  999.0,  999.0,  999.0,  999.0,  999.0,  999.0,  999.0,  999.0,  999.0,  999.0,  999.0,   -0.0,   -1.1,  999.0,   -0.7,   -1.2,  999.0,    0.1,  999.0,   -1.3,  999.0,   -1.4,   -1.0,    0.2,   -0.7,  999.0,   -0.8,   -0.4,   -0.4
2001/03/17 11:10,    0.1,    2.9,    5.6,    5.4,    1.6,    4.4,    7.5,    6.0,    5.8,    5.8,    6.7,    7.6,    8.2,    8.1,    8.1,    8.4,    8.9,    8.5,    7.7,    8.0,    9.8,   12.0,   10.2,   10.9,   16.5,  999.0,  999.0,  999.0,  999.0,  999.0,  999.0,  999.0,  999.0,  999.0,  999.0,  999.0,  999.0,  999.0,  999.0,  999.0,   -0.8,   -1.1,  999.0,  999.0,  999.0,   -0.7,   -0.1,  999.0,  999.0,   -0.4,  999.0,  999.0,  999.0,   -0.4,    0.3,   -1.4,  999.0,   -0.8
2001/03/17 11:20,  999.0,    5.2,    4.3,    4.3,    3.3,    3.8,    4.6,    5.9,    5.7,    7.6,    8.4,    8.1,    7.9,    8.0,    8.0,    9.4,    8.7,   10.0,   12.1,   13.8,   10.4,   13.0,    9.5,   13.1,   13.0,  999.0,  999.0,  999.0,  999.0,  999.0,  999.0,    2.0,   -8.9,   -5.4,   -5.9,   -6.1,   -1.0,   -0.8,   -4.4,   -1.1,   -1.1,   -1.3,   -0.7,   -0.8,   -0.8,   -1.2,   -0.7,  999.0,   -0.6,   -0.3,   -0.9,   -1.0,   -0.4,   -0.7,   -0.6,   -0.7,   -0.5,   -0.7
2001/03/17 11:30,    0.4,    1.6,    3.1,    1.9,    3.5,    3.6,    4.5,    5.9,    6.3,    7.3,    7.7,    7.5,    7.9,    8.2,    7.9,    8.0,    7.8,  999.0,   10.0,  999.0,  999.0,   13.0,   14.2,   14.8,  999.0,  999.0,  999.0,  999.0,    9.7,  999.0,  999.0,  999.0,  999.0,  999.0,  999.0,   -3.6,   -2.7,   -2.4,   -1.9,   -1.0,   -0.6,   -0.6,   -1.0,   -1.1,   -0.8,   -0.6,   -1.0,   -0.8,   -0.9,   -0.7,   -0.7,   -0.7,   -0.5,   -0.4,   -1.1,   -0.9,   -0.6,   -0.8
2001/03/17 11:40,  999.0,    3.8,    3.7,    6.6,    5.6,    6.5,    6.3,    6.4,    6.8,    8.0,    9.0,    9.5,    8.9,    9.1,    8.3,    8.8,    8.7,    8.6,    8.5,    7.6,    9.2,    7.8,  999.0,    6.9,  999.0,   11.5,  999.0,   12.9,  999.0,  999.0,  999.0,  999.0,  999.0,  999.0,   -3.1,   -4.1,   -1.8,   -0.7,   -1.2,   -0.7,   -0.7,   -0.4,   -0.8,   -0.5,   -0.7,   -0.8,   -0.7,   -0.4,   -0.8,   -0.5,   -0.9,   -0.8,   -0.6,   -0.1,   -0.3,   -0.7,   -0.7,   -0.7
2001/03/17 11:50,  999.0,    4.4,    5.4,    4.4,    5.4,    6.0,    7.2,    7.6,    7.6,    7.8,    9.1,    8.1,    7.9,    8.8,    8.6,    8.2,    7.9,    8.1,    6.9,   10.9,    5.6,    7.1,    5.4,    9.0,   16.4,  999.0,    9.9,  999.0,  999.0,  999.0,  999.0,  999.0,  999.0,  999.0,   -1.7,   -0.4,   -0.7,   -0.6,   -0.8,   -0.4,   -0.5,   -1.0,   -0.6,   -0.9,  999.0,   -0.9,   -0.5,   -0.6,   -0.4,   -0.7,   -0.9,   -1.2,   -0.4,   -0.8,   -1.0,  999.0,   -1.0,   -0.4
2001/03/17 12:00,  999.0,    5.1,    5.6,    2.9,    4.6,    5.1,    2.1,    2.2,    3.7,    4.7,    4.9,    5.6,    5.8,    6.5,    8.7,    8.0,    7.9,    8.2,    9.2,   10.4,   13.4,   14.9,    8.1,    8.9,   10.4,  999.0,  999.0,   32.6,   15.4,   38.3,   41.0,   15.7,   18.0,   25.5,   -0.9,   18.7,   -0.1,   27.4,   41.8,   20.0,   -0.9,   -0.4,   -0.3,   41.8,   28.0,   41.8,   42.0,    0.0,   20.6,   21.3,   42.0,   21.4,   -0.2,   41.7,   20.8,   42.1,   20.8,   20.6
2001/03/17 12:10,  999.0,    3.4,    2.6,    2.3,    2.0,    2.8,    5.6,    6.1,    6.1,    5.6,    6.7,    7.7,    8.2,    8.4,    8.0,    6.9,    4.9,    8.3,    8.3,    9.1,   12.2,  999.0,   10.9,    9.9,   14.7,  999.0,  999.0,  999.0,   28.7,   30.0,  999.0,   32.5,   33.7,   35.2,   36.6,   38.1,  999.0,  999.0,  999.0,   39.8,   41.3,  999.0,   42.0,   41.4,   41.5,   41.2,   41.6,   41.6,   41.2,   42.0,   41.6,  999.0,   42.5,   41.6,   41.5,   41.8,   41.6,   42.0
2001/03/17 12:20,  999.0,    2.7,    0.6,   -0.1,    1.5,    1.8,    2.5,    3.1,    4.5,    5.0,    4.8,    5.8,    4.8,    8.3,    9.8,   10.0,    8.8,   11.0,  999.0,  999.0,  999.0,  999.0,  999.0,  999.0,  999.0,  999.0,  999.0,  999.0,  999.0,  999.0,  999.0,   41.7,   28.3,   31.5,   28.3,   31.3,   28.0,  999.0,   21.2,   41.5,   28.7,   21.0,   28.5,   32.5,  999.0,   31.8,  999.0,   35.6,   27.2,   41.7,   29.4,   38.7,   28.9,   31.6,   27.6,   27.7,   30.9,   31.2
2001/03/17 12:30,  999.0,    3.7,    4.9,    5.4,    4.9,    4.9,    5.6,    6.0,    6.3,    6.7,    6.5,    6.8,    6.4,    6.5,    6.8,    8.2,    9.4,    9.2,   10.8,    7.4,    9.3,  999.0,  999.0,   13.2,  999.0,   11.5,  999.0,  999.0,  999.0,  999.0,  999.0,  999.0,    4.1,  999.0,    6.6,    7.6,  999.0,   10.2,   21.3,  999.0,    8.0,    2.9,  999.0,   21.0,   33.4,  999.0,  999.0,  999.0,   23.9,  999.0,  999.0,  999.0,   41.8,  999.0,  999.0,  999.0,  999.0,   42.2
2001/03/17 12:40,  999.0,    5.8,    6.6,    6.8,    6.2,    6.9,    5.6,    6.3,    6.8,    6.5,    6.7,    6.5,    6.5,    6.7,    6.9,    7.7,    8.5,   10.7,   10.9,    9.5,    8.7,    8.9,    9.1,   10.0,  999.0,  999.0,  999.0,  999.0,  999.0,  999.0,   13.9,  999.0,   20.3,  999.0,   21.8,   29.0,  999.0,   31.7,   32.4,   33.2,   35.8,   35.3,  999.0,   38.8,  999.0,  999.0,  999.0,   41.6,   41.5,  999.0,  999.0,  999.0,  999.0,  999.0,   41.8,  999.0,  999.0,  999.0
2001/03/17 12:50,  999.0,    7.6,    7.1,    7.3,    5.4,    7.1,    6.4,    4.9,    5.4,    5.4,    5.5,    6.0,    6.1,    6.9,    7.2,    6.9,    6.0,    5.9,    5.7,    5.1,    5.1,    3.8,    4.8,    8.6,  999.0,  999.0,  999.0,  999.0,  999.0,  999.0,  999.0,  999.0,  999.0,  999.0,  999.0,  999.0,  999.0,  999.0,  999.0,   -1.2,  -11.4,   -7.8,   -0.7,   -1.3,   -0.8,   -0.7,   -0.6,   -0.7,  999.0,  999.0,  -19.5,  999.0,  999.0,   21.2,   -0.3,   -0.9,  999.0,  999.0
2001/03/17 13:00,  999.0,  999.0,    6.7,    6.5,    8.7,    3.7,    3.5,    5.0,    5.2,    6.3,    6.5,    7.3,    7.8,    7.3,    6.5,    6.5,    6.3,    6.3,    6.4,    7.1,    7.4,    6.8,    7.4,    7.1,    5.6,    5.7,    4.8,    4.2,  999.0,  999.0,  999.0,  999.0,  999.0,  999.0,  999.0,  999.0,  999.0,  999.0,    6.5,   -0.9,    8.7,  -10.1,   -6.2,   -5.1,   -4.2,    3.5,   -2.7,   10.1,    6.6,   20.0,   -0.8,   -0.8,   10.1,   -0.4,    9.7,   -1.2,    6.1,   -0.5
2001/03/17 13:10,  999.0,  999.0,    8.5,    8.2,    5.7,    7.6,    8.6,    9.1,    7.2,    7.4,    9.2,    8.0,    8.0,    7.9,    7.1,    6.2,    5.9,    5.8,    6.0,    6.4,    6.2,    5.8,    6.1,    6.5,    4.6,    5.9,  999.0,  999.0,  999.0,  999.0,  999.0,  999.0,  999.0,  999.0,  999.0,  999.0,  999.0,  999.0,  999.0,  999.0,   15.0,   16.1,  999.0,  999.0,   12.3,    7.0,   -0.7,    4.7,    6.2,   -0.5,    0.0,   13.3,   -0.7,   -0.7,    6.2,   13.8,   -0.8,   13.4
2001/03/17 13:20,  999.0,  999.0,    9.5,    4.7,    6.6,    6.5,    7.9,    7.2,    7.2,    7.3,    7.5,    7.7,    7.7,    7.4,    7.0,    6.2,    5.7,    5.5,    5.7,    6.4,    7.0,    7.3,    8.2,    7.0,    6.9,    7.0,  999.0,  999.0,  999.0,  999.0,  999.0,  999.0,  999.0,  999.0,  999.0,  999.0,  999.0,  999.0,  999.0,  999.0,  -23.1,  -12.7,  -10.8,   -8.7,  -14.3,   -8.9,   -0.0,   -3.4,  -21.4,  -10.4,  -22.7,  -15.0,  -14.7,  -14.3,  -14.0,  -14.3,  -21.0,  -21.3
2001/03/17 13:30,  999.0,  999.0,    9.4,    5.8,    5.9,    4.9,    5.1,    6.8,    7.7,    7.6,    7.0,    6.9,    7.3,    8.0,    7.3,    7.3,    6.8,    6.5,    6.6,    6.1,    6.8,    7.4,    7.5,    8.7,    9.4,    6.6,  999.0,   18.1,  999.0,  999.0,  999.0,  999.0,  999.0,  999.0,  999.0,  999.0,  999.0,  999.0,  999.0,  999.0,  -16.9,   -6.3,  -21.2,  -21.9,  -39.2,  -30.0,  999.0,  -16.4,  -25.6,  -27.7,  -20.6,  -41.3,  -33.7,  -24.9,  -31.4,  -42.0,  -21.6,  -33.6
2001/03/17 13:40,  999.0,  999.0,  999.0,   11.2,   11.4,    9.0,   10.8,   10.3,   10.0,    9.3,    9.2,    7.9,    6.8,    6.7,    6.0,    6.8,    5.6,    5.4,    5.1,    5.1,    4.9,    6.0,    6.4,    7.5,    8.0,  999.0,  999.0,  999.0,  999.0,  999.0,  999.0,  999.0,  999.0,  999.0,  999.0,  999.0,  999.0,  999.0,  999.0,  999.0,  -41.7,  -39.4,  -40.4,  -40.2,  -40.4,  -41.8,  -41.0,  -40.7,  -41.8,  -41.3,  -41.6,  -41.6,  -41.8,  -41.8,  -41.7,  -41.7,  -41.9,  999.0
2001/03/17 13:50,  999.0,  999.0,  999.0,    9.0,    7.4,    7.0,    6.8,    8.3,    7.9,    8.2,    7.9,    7.4,    7.2,    7.5,    5.9,    6.1,    7.5,    6.5,    6.4,    6.7,    6.6,    6.0,    5.1,    6.0,    5.7,    5.4,  999.0,  999.0,  999.0,  999.0,  999.0,  999.0,  999.0,  999.0,  999.0,  999.0,  999.0,  999.0,  -41.6,  -41.7,  -41.4,  -41.9,  -41.7,  999.0,  -41.6,  -41.8,  -42.2,  -42.0,  -42.1,  -42.1,  -42.1,  -41.4,  -42.1,  -41.6,  -41.5,  -41.7,  -41.9,  -42.0
2001/03/17 14:00,  999.0,  999.0,   10.6,   10.1,   10.5,   12.3,   11.3,    7.2,    6.7,    8.2,    7.3,    7.2,    7.5,    6.6,    7.0,    7.3,    6.2,    5.4,    5.4,    5.2,    6.2,  999.0,    5.3,    6.4,    5.8,    5.2,    5.5,  999.0,  999.0,  999.0,  999.0,  999.0,  999.0,  999.0,  999.0,  999.0,  999.0,  999.0,  999.0,  999.0,  -35.8,  999.0,  -41.6,  -41.7,  -31.2,  -42.0,  -42.0,  -27.9,  -31.4,  -21.7,  -35.4,  -33.2,  -42.3,  -42.0,  -41.8,  -41.9,  -34.1,  -28.3
2001/03/17 14:10,  999.0,  999.0,   11.5,    9.0,    7.0,    8.7,    8.8,    8.4,    7.8,    8.6,    8.1,    7.9,    7.9,    7.4,    7.1,    5.7,    5.0,    5.8,    6.6,    5.9,  999.0,  999.0,   -1.2,   -4.6,   -2.4,   -3.4,   -4.4,  999.0,  999.0,  999.0,  999.0,  999.0,  999.0,  999.0,  999.0,  999.0,  999.0,  999.0,  999.0,  999.0,  999.0,  -41.8,  -41.6,  -41.9,  -41.7,  -41.5,  -41.8,  -42.0,  -41.8,  -41.7,  -41.9,  -41.9,  -41.5,  -41.7,  -41.9,  -41.8,  -41.8,  -41.7
2001/03/17 14:20,  999.0,  999.0,   10.5,    8.7,    7.9,    8.6,    7.4,    9.3,    8.3,    8.6,    9.0,    9.2,    8.0,    7.5,    7.2,    6.8,    5.5,    3.9,    2.4,    3.6,  999.0,   -2.2,   -1.3,   -4.8,   -4.1,   -8.1,   -7.9,  999.0,  999.0,  999.0,  999.0,  999.0,  999.0,  999.0,  999.0,  999.0,  999.0,  999.0,  999.0,  -42.2,  -41.9,  -41.7,  -41.9,  -42.1,  -42.0,  -42.0,  -42.3,  -41.9,  -42.1,  -42.3,  -42.0,  -41.9,  -42.3,  -42.1,  -41.8,  -41.8,  -41.8,  999.0
2001/03/17 14:30,  999.0,  999.0,  999.0,  999.0,  999.0,   10.0,    9.9,    9.4,    9.0,    9.6,    9.9,    9.6,    9.2,    8.6,    8.1,    7.1,    5.8,   -0.0,    6.7,    4.2,    2.7,    5.4,   -1.7,  999.0,   -6.9,  -10.6,  999.0,  999.0,  999.0,  999.0,  999.0,  999.0,  999.0,  999.0,  999.0,  999.0,  999.0,  -42.4,  -42.2,  -42.0,  -41.9,  -42.0,  -41.9,  -41.6,  -41.9,  -41.9,  -41.8,  -41.7,  -41.8,  -42.0,  -41.9,  -41.8,  -41.7,  -42.1,  999.0,  -41.8,  999.0,  -41.7
2001/03/17 14:40,  999.0,  999.0,  999.0,    9.7,    9.3,    9.5,    9.4,    9.3,    9.1,    9.3,    8.8,    9.5,    9.6,    8.9,    7.7,    7.0,    7.0,    8.5,    8.3,    8.4,    7.5,    5.5,    1.5,   -0.4,   -7.7,  -10.0,  -12.1,  -14.3,  999.0,  999.0,  999.0,  999.0,  999.0,  999.0,  999.0,  999.0,  999.0,  -39.5,  -41.7,  -41.6,  -41.7,  -41.7,  -41.8,  -42.0,  -41.6,  -41.6,  -41.6,  -41.7,  -41.6,  -41.5,  -41.4,  -41.6,  -41.8,  -42.0,  -41.6,  -41.7,  -41.7,  -42.0
2001/03/17 14:50,  999.0,   11.1,    9.7,    9.4,    9.3,    8.6,    8.9,    9.0,    8.9,    8.8,    8.8,    9.0,    9.2,  999.0,    8.7,    7.6,    7.5,    7.8,    7.5,    6.2,    5.0,    3.7,    2.6,    1.0,   -2.8,  999.0,  999.0,  999.0,  999.0,  -16.6,  999.0,  999.0,  999.0,  999.0,  999.0,  999.0,  999.0,  999.0,  999.0,  -41.2,  -41.9,  -36.7,  -31.2,  -31.1,  -42.1,  -31.0,  -27.5,  -34.3,  -27.3,  -31.0,  -20.8,  -37.5,  -41.7,  -41.2,  -27.7,  -41.9,  -33.2,  -36.6
2001/03/17 15:00,  999.0,   11.3,   11.8,   10.7,   10.3,   10.5,   10.8,   10.5,   10.1,    9.9,    9.9,   10.0,    9.4,  999.0,    9.2,    8.1,    7.6,    7.3,    6.0,    4.8,  999.0,    3.6,    2.7,    1.2,   -0.6,   -6.5,  999.0,  999.0,   -4.6,    4.9,    3.0,  999.0,  999.0,  999.0,  999.0,  999.0,   -6.9,  999.0,  999.0,  999.0,  999.0,  999.0,  -20.8,  -42.0,  999.0,  -20.2,  -34.7,  -27.6,  -41.9,  -34.9,  -31.5,  -41.4,  -27.4,  -34.6,  -41.7,  -27.9,  -41.7,  -41.3
2001/03/17 15:10,  999.0,    7.4,    8.5,   10.0,    9.7,   10.1,    9.9,    9.6,    9.7,   10.2,   11.0,   10.7,   10.6,  999.0,  999.0,    6.8,    6.7,    7.1,    7.2,    4.9,    5.1,    5.3,    4.7,  999.0,   -1.0,  999.0,  999.0,  999.0,   -8.7,  -11.1,  -11.6,  999.0,  999.0,  999.0,  999.0,  999.0,  999.0,  999.0,  999.0,  999.0,  999.0,  999.0,  -42.2,  -41.5,  -38.0,  -42.0,  -42.2,  -41.9,  -42.3,  -41.8,  -42.0,  -42.1,  -42.3,  999.0,  -41.9,  -41.7,  -41.9,  -42.1
2001/03/17 15:20,  999.0,  999.0,    8.1,    9.2,    9.6,   10.1,    9.5,    9.0,    9.8,   10.6,   10.2,    9.6,    8.4,  999.0,  999.0,  999.0,  999.0,  999.0,   -7.9,   -9.0,   -9.1,   -5.5,  999.0,  999.0,  999.0,  999.0,  999.0,  999.0,  999.0,  999.0,  999.0,  999.0,  999.0,  999.0,  999.0,  999.0,  999.0,  999.0,  999.0,  999.0,  999.0,  -34.6,  -20.5,  -41.2,  -41.7,  -41.5,  -41.6,  -34.8,  -20.4,  -42.0,  -41.8,  -34.7,  -27.4,  -42.1,  -42.3,  -41.9,  -41.7,  -41.8
2001/03/17 15:30,  999.0,    7.8,    9.1,   11.1,   10.8,    9.9,    9.1,    9.6,   10.3,   10.8,   10.8,    9.3,    8.3,  999.0,  999.0,  999.0,  999.0,  999.0,   -2.5,   -5.7,   -5.0,  999.0,  999.0,  999.0,  999.0,  999.0,  999.0,  999.0,  999.0,  999.0,  999.0,  999.0,  999.0,  999.0,  999.0,  999.0,  999.0,  -41.8,  999.0,  -41.9,  -41.7,  -31.3,  -41.9,  -41.8,  -27.8,  999.0,  -31.5,  -41.6,  -41.6,  -39.7,  -41.9,  -35.6,  999.0,  -28.4,  -28.5,  -35.2,  -41.6,  -32.1
2001/03/17 15:40,  999.0,   11.5,   10.5,   11.0,   10.7,   10.8,   11.0,   10.9,   10.9,   10.5,    9.7,    9.4,    6.6,  999.0,  999.0,  999.0,  999.0,  -10.4,  999.0,  999.0,  999.0,  999.0,  999.0,  999.0,  999.0,  999.0,  999.0,  999.0,  999.0,  999.0,  999.0,  999.0,  999.0,  999.0,  999.0,  999.0,  999.0,  999.0,  999.0,  999.0,  999.0,  -41.4,  -42.0,  -41.7,  999.0,  -42.0,  -41.3,  -41.7,  -42.1,  -41.6,  -41.5,  -41.6,  -41.7,  -41.9,  -41.9,  -41.7,  -41.7,  -42.2
2001/03/17 15:50,  999.0,  999.0,  999.0,  999.0,    9.0,    9.0,   10.4,   10.3,    9.9,   10.5,    9.6,    9.5,    9.2,  999.0,  999.0,    4.8,    3.2,    2.1,  999.0,  999.0,  999.0,  999.0,  999.0,  999.0,  -15.5,  999.0,  999.0,  999.0,  999.0,  999.0,  999.0,  999.0,  999.0,  999.0,  999.0,  999.0,  999.0,  999.0,  999.0,  999.0,  999.0,  -42.0,  -34.7,  -34.5,  -33.7,  -39.5,  -42.1,  -39.9,  -36.7,  999.0,  -42.3,  -41.7,  -36.7,  -34.6,  -42.2,  999.0,  -21.2,  -31.3
2001/03/17 16:00,  999.0,   10.2,   11.8,   11.6,   12.0,   12.2,   11.8,   11.6,   11.2,   11.2,   10.5,    9.1,    8.6,  999.0,  999.0,  999.0,  999.0,  999.0,  999.0,  999.0,   -2.2,  999.0,  999.0,  999.0,  999.0,  999.0,  999.0,  999.0,  999.0,  999.0,  999.0,  999.0,  999.0,  999.0,  999.0,  999.0,  999.0,  999.0,  999.0,  999.0,  999.0,  -20.4,  -39.3,  -27.8,  -30.1,  -35.6,  -30.0,  -29.3,  -41.1,  -26.9,  -34.6,  -41.6,  -41.7,  -27.8,  -41.6,  -20.7,  -34.8,  -31.5
2001/03/17 16:10,  999.0,  999.0,   11.6,   11.9,   12.8,   12.7,   12.9,   12.5,   12.1,   12.0,   11.2,    9.9,    9.4,    8.3,    7.5,  999.0,  999.0,  999.0,  999.0,  999.0,   -9.1,  999.0,  999.0,  999.0,  999.0,  999.0,  999.0,  999.0,  999.0,  999.0,  999.0,  999.0,  999.0,  999.0,  999.0,  999.0,  999.0,  -41.6,  -41.8,  -41.7,  -41.8,  -41.9,  -41.5,  -41.6,  -41.9,  -41.8,  -42.2,  -41.8,  -41.8,  -41.8,  -41.9,  -42.0,  -42.0,  -42.0,  -41.5,  -42.1,  -42.3,  -41.6
2001/03/17 16:20,  999.0,   11.8,   11.5,   12.1,   12.0,   11.9,   12.3,   12.4,   12.2,   11.9,   12.2,   10.5,   10.8,  999.0,    7.4,  999.0,  999.0,  999.0,  999.0,  999.0,  999.0,    0.1,  999.0,  999.0,  999.0,  999.0,  999.0,  999.0,  999.0,  999.0,  999.0,  999.0,  999.0,  999.0,  999.0,  999.0,  -41.6,  -38.3,  -41.9,  -42.0,  -36.9,  -40.4,  -39.0,  -41.6,  -34.5,  -33.7,  -41.6,  -42.5,  -41.5,  -39.4,  -34.0,  -35.6,  -42.4,  -42.3,  -41.9,  -41.8,  -41.9,  -42.2
2001/03/17 16:30,  999.0,   11.9,   11.2,   11.6,   12.3,   12.7,   12.8,   12.7,   12.3,   11.5,   11.2,   11.1,   10.2,  999.0,    6.8,  999.0,  999.0,  999.0,  999.0,  999.0,  -16.8,  999.0,  999.0,  999.0,  999.0,  999.0,  999.0,  999.0,  999.0,  999.0,  999.0,  999.0,  999.0,  999.0,  999.0,  999.0,  999.0,  -41.4,  -42.0,  -41.8,  -27.4,  -41.8,  -41.6,  -41.9,  -38.6,  -34.5,  -41.6,  -29.0,  -29.5,  -41.4,  999.0,  -28.1,  -24.5,  -29.4,  -28.1,  -33.8,  -41.9,  -37.1
2001/03/17 16:40,  999.0,  999.0,   13.2,   12.2,   12.8,   13.3,   13.3,   13.1,   12.7,   12.3,   12.1,  999.0,  999.0,  999.0,  999.0,  999.0,  999.0,  999.0,  999.0,  999.0,  -15.6,  999.0,  999.0,  999.0,  999.0,  999.0,  999.0,  999.0,  999.0,  999.0,  999.0,  999.0,  999.0,  999.0,  999.0,  -41.5,  -41.0,  -42.0,  -41.7,  -41.9,  -41.8,  -42.3,  -41.9,  -41.9,  -42.1,  -41.9,  -41.7,  -42.1,  999.0,  -41.7,  -42.1,  -42.1,  -42.1,  -42.0,  -42.6,  -42.2,  -41.9,  -41.9
2001/03/17 16:50,  999.0,  999.0,   11.7,   11.8,   11.8,   12.6,   13.0,   13.1,   12.8,   12.4,   12.2,   11.8,   11.8,  999.0,  999.0,  999.0,  999.0,  999.0,  999.0,  999.0,  -13.9,  999.0,  999.0,  999.0,  999.0,  999.0,  999.0,  999.0,  999.0,  999.0,  999.0,  999.0,  -42.0,  999.0,  -42.2,  -42.1,  -41.6,  -42.3,  -41.9,  -42.3,  -42.0,  -42.7,  -42.0,  999.0,  -41.2,  -42.0,  -41.7,  -41.4,  -41.8,  -41.7,  -41.9,  999.0,  -42.0,  -41.7,  -41.3,  -41.7,  -41.7,  -42.1
2001/03/17 17:00,  999.0,  999.0,  999.0,  999.0,  999.0,   12.9,   13.4,   12.9,   12.8,   11.9,   11.7,   11.6,   11.3,   10.3,  999.0,    6.3,    3.5,  999.0,  999.0,  999.0,  999.0,  999.0,  999.0,  999.0,  999.0,  999.0,  999.0,  999.0,  999.0,  999.0,  999.0,  999.0,  999.0,  999.0,  999.0,  -41.9,  -41.8,  -41.6,  -41.7,  999.0,  -42.0,  -41.9,  -41.8,  -41.8,  -42.0,  -41.8,  -41.6,  -41.6,  -41.8,  -41.6,  -41.8,  -41.8,  -41.7,  -41.4,  -42.1,  -42.2,  -42.0,  -42.0
2001/03/17 17:10,  999.0,  999.0,  999.0,  999.0,   12.8,   13.5,   13.7,   13.9,   13.9,   13.7,   11.2,   10.9,   10.4,    9.4,  999.0,    2.1,   -0.7,  999.0,  999.0,  999.0,  999.0,  -21.5,  999.0,  999.0,  999.0,  999.0,  999.0,  999.0,  999.0,  999.0,  999.0,  999.0,  999.0,  999.0,  -41.6,  -41.7,  -41.6,  -41.5,  -41.7,  -41.6,  -41.7,  -42.1,  -42.1,  -41.9,  -41.9,  -41.8,  -41.7,  -41.8,  -41.8,  -41.5,  -42.3,  -41.6,  -41.8,  -42.2,  -41.4,  -41.6,  -41.9,  -41.5
2001/03/17 17:20,  999.0,  999.0,  999.0,   14.3,   14.9,   14.9,   14.9,   14.7,   14.9,   14.0,   13.2,   11.5,   11.1,   10.4,    9.9,    4.1,    1.1,  999.0,  999.0,  999.0,  -13.1,  999.0,  999.0,  999.0,  999.0,  999.0,  999.0,  999.0,  999.0,  -42.1,  -42.4,  -41.8,  -41.8,  -41.4,  -41.9,  -41.6,  -42.0,  -41.7,  -41.4,  -41.5,  -41.9,  -42.1,  -41.9,  -42.1,  -42.0,  -42.0,  -41.7,  -42.0,  -42.1,  999.0,  -41.5,  -41.4,  999.0,  -41.8,  -41.5,  999.0,  -42.0,  -41.9
2001/03/17 17:30,  999.0,  999.0,  999.0,   12.8,   14.3,   14.8,   14.2,   14.4,   14.1,   13.2,   13.0,   12.3,   11.6,    9.7,    9.5,    9.1,  999.0,    2.6,    2.6,  999.0,  999.0,  999.0,  999.0,  999.0,  999.0,  999.0,  999.0,  999.0,  999.0,  999.0,  999.0,  999.0,  -42.4,  -41.6,  -41.8,  999.0,  -41.6,  -41.5,  -41.6,  -41.8,  -41.7,  -41.9,  -41.4,  -41.8,  -41.7,  -42.0,  -41.7,  -42.0,  -41.9,  -42.2,  -41.3,  -41.8,  -41.7,  -41.8,  -41.5,  999.0,  -41.9,  -41.8
2001/03/17 17:40,  999.0,  999.0,  999.0,   12.9,   14.1,   14.6,   13.9,   13.7,   13.5,   13.0,   13.0,   13.8,  999.0,    9.8,   10.2,    8.9,    8.5,    5.7,  999.0,   -0.7,   -3.0,  999.0,  999.0,  999.0,  999.0,  999.0,  999.0,  999.0,  999.0,  999.0,  999.0,  -40.8,  -41.4,  -40.5,  -41.9,  -41.1,  999.0,  -41.7,  -41.5,  -41.6,  -41.3,  -41.3,  -41.5,  -41.6,  -41.3,  -41.4,  999.0,  -41.6,  -41.6,  -41.0,  -41.5,  -41.4,  -41.5,  999.0,  -41.7,  -42.2,  -41.6,  -42.1
2001/03/17 17:50,  999.0,  999.0,   12.5,   13.9,   13.9,   14.6,   14.9,   13.9,   13.7,   13.2,   12.1,   13.1,  999.0,  999.0,   11.4,   10.5,   10.3,    9.2,    7.4,    4.9,  999.0,  999.0,  999.0,  999.0,  999.0,  999.0,  999.0,  999.0,  999.0,  999.0,  999.0,  999.0,  -30.5,  -24.3,  -31.3,  -37.2,  999.0,  -37.8,  -36.6,  -37.6,  -42.6,  -36.5,  -42.2,  -39.2,  -38.2,  -40.1,  -41.7,  -37.7,  -41.5,  -41.1,  999.0,  999.0,  -41.3,  -41.4,  999.0,  -41.4,  -41.2,  999.0
2001/03/17 18:00,  999.0,   13.0,   13.6,   14.5,   15.3,   16.1,   17.2,   13.7,   13.8,   15.2,   -0.5,    0.8,   -6.7,   -7.8,   -4.7,   -7.5,   -7.8,   -6.0,   -4.1,   -7.6,  -11.3,  -11.8,  -12.2,  -12.0,  -11.0,  -11.0,  -11.9,  -13.1,  -12.9,  -16.9,  -14.1,  -18.5,  -20.8,  -22.2,  -19.5,  -25.3,  -14.1,  999.0,  999.0,  999.0,  999.0,  999.0,  999.0,  999.0,  999.0,  999.0,  999.0,  -34.0,  999.0,  999.0,  -37.9,  999.0,  999.0,  999.0,  999.0,  999.0,  999.0,  999.0
2001/03/17 18:10,  999.0,   12.4,   10.4,   14.2,   15.7,    8.0,    3.9,    2.5,   -4.8,   -4.3,   -6.5,   -6.6,   -6.5,   -6.8,   -7.6,   -8.6,   -9.4,  -10.2,  -10.6,  -10.6,  -10.7,  -10.7,  -10.3,  -10.2,  -10.2,  -10.3,  -10.3,  -10.4,  -10.6,  -10.9,  -11.4,  -12.5,  -13.7,  -14.6,  -15.2,  -15.8,  -15.7,  -15.0,  999.0,  999.0,  999.0,  999.0,  999.0,  999.0,  999.0,  999.0,  999.0,  999.0,  999.0,  999.0,  999.0,  999.0,  999.0,  999.0,  999.0,  999.0,  999.0,  999.0
2001/03/17 18:20,  999.0,   -0.7,   -8.4,   -8.1,   -7.8,   -8.4,   -6.3,   -5.1,   -5.6,   -6.7,   -7.0,   -6.8,   -7.1,   -8.1,   -9.6,  -10.9,  -11.1,  -11.0,  -11.0,  -11.1,  -10.8,  -10.7,  -10.4,  -10.0,  -10.0,   -9.6,   -9.0,   -8.9,  -10.7,  -11.2,  -12.6,  -13.6,  -14.4,  -14.6,  -14.6,  -14.2,  999.0,  999.0,  999.0,  999.0,  999.0,  999.0,  999.0,  999.0,  999.0,  999.0,  999.0,  999.0,  999.0,  999.0,  999.0,  999.0,  999.0,  999.0,  999.0,  999.0,  999.0,  999.0
2001/03/17 18:30,  999.0,   -4.8,   -6.3,   -4.7,   -6.0,   -6.6,   -5.5,   -5.2,   -5.8,   -6.4,   -6.5,   -6.9,   -7.9,   -9.4,  -10.5,  -11.0,  -10.9,  -10.8,  -10.5,  -10.0,   -9.8,   -9.9,  -10.2,  -10.1,  -10.2,  -10.4,  -10.1,  -10.7,  -11.8,  -12.5,  -14.5,  -17.0,  -17.6,  -16.8,  999.0,  999.0,  999.0,  999.0,  999.0,  999.0,  999.0,  999.0,  999.0,  999.0,  999.0,  999.0,  999.0,  999.0,  999.0,  999.0,  999.0,  999.0,  999.0,  999.0,  999.0,  999.0,  999.0,  999.0
2001/03/17 18:40,  999.0,   -2.4,   -7.0,   -0.0,   -5.5,   -5.9,   -5.5,   -4.9,   -5.0,   -5.8,   -6.0,   -6.2,   -6.5,   -7.2,   -8.0,   -8.7,   -9.8,  -10.8,  -11.7,  -12.2,  -12.5,  -12.7,  -12.7,  -11.9,  -11.1,  -10.2,  -10.2,  -11.2,  -12.7,  -15.3,  -16.1,  -16.4,  -16.3,  999.0,  999.0,  999.0,  -15.9,  999.0,  999.0,  -17.5,  999.0,  999.0,  999.0,  999.0,  999.0,  999.0,  999.0,  999.0,  999.0,  999.0,  999.0,  999.0,  999.0,  999.0,  999.0,  999.0,  999.0,   -7.6
2001/03/17 18:50,  999.0,   11.0,   12.5,    9.7,  999.0,  999.0,   -6.6,   -5.6,   -5.8,   -6.4,   -7.2,   -8.0,   -8.8,   -9.6,   -9.7,   -9.8,  -10.0,  -10.9,  -12.0,  -12.7,  -13.5,  -13.9,  -13.9,  -14.1,  -14.3,  -14.0,  -16.0,  -15.5,  -14.7,  -13.4,  -12.0,  -13.0,  -13.0,  -11.7,   -8.7,   -8.1,   -8.0,   -8.4,   -9.2,   -9.2,   -7.6,  999.0,  999.0,  999.0,  999.0,  999.0,    3.1,  999.0,  999.0,    3.4,    3.4,    4.0,    4.9,    4.9,    4.7,    4.2,    4.8,    5.4
2001/03/17 19:00,  999.0,   12.2,   12.9,   13.5,  999.0,  999.0,   -5.0,   -4.5,   -5.2,   -5.9,   -6.2,   -6.6,   -7.0,   -7.6,   -8.3,   -9.2,  -10.4,  -11.2,  -12.0,  -13.1,  -13.5,  -13.3,  -12.5,  -11.9,  -11.6,  -11.8,  -13.5,  -15.5,  -16.2,  -16.1,  -15.0,  -14.5,  -13.7,  999.0,   -9.2,   -6.7,  999.0,  999.0,  999.0,  999.0,  999.0,  999.0,  999.0,  999.0,    3.7,    4.0,    3.4,    3.6,    3.6,    3.1,    3.0,    3.6,    4.2,    4.2,    4.1,    4.0,    4.3,    4.6
2001/03/17 19:10,  999.0,    8.1,    8.8,    9.8,   -7.8,   -7.2,   -2.4,   -5.8,   -5.4,   -5.0,   -5.1,   -5.3,   -5.8,   -6.5,   -7.1,   -7.6,   -7.9,   -8.3,   -9.3,  -11.0,  -12.7,  -13.2,  -14.0,  -13.4,  -13.8,  -12.9,  -14.0,  -14.2,  -14.2,  -13.4,  -13.1,  -11.9,  999.0,   -7.0,   -4.5,  999.0,   -2.3,  999.0,   -0.8,   -1.8,   -2.5,   -0.3,    1.2,    0.8,    1.9,    2.6,    3.3,    3.6,    3.7,    3.1,    2.6,    3.0,    3.5,    3.6,    3.2,    2.7,    2.7,    2.8
2001/03/17 19:20,  999.0,    8.4,    9.4,    6.9,    7.4,   10.8,   11.4,   11.0,    9.8,    9.9,    9.8,    9.6,    9.2,    8.7,    7.8,    7.1,    6.8,    6.4,    6.8,    7.8,    7.2,    6.9,    6.0,    6.1,    5.4,    5.4,    5.2,    5.2,    5.4,    5.3,    4.8,    4.6,    5.1,    5.7,    5.5,    4.0,    3.6,    3.1,    3.1,    0.9,    1.2,    1.6,    1.0,    0.6,    1.4,    2.7,    3.2,    3.6,    3.4,    3.1,    3.4,    4.1,    4.8,    4.8,    4.5,    4.5,    4.4,    4.3
2001/03/17 19:30,  999.0,   10.0,   11.3,   12.4,   13.6,   13.6,   11.4,   10.3,    9.5,    9.3,    9.6,    9.7,    9.6,    9.0,    8.6,    8.0,    7.8,    6.7,    5.6,    4.7,    3.9,    4.4,    3.4,    4.2,    3.7,    3.7,    4.0,    4.3,    5.3,    5.2,    4.9,    4.5,    3.6,    4.0,    4.2,    3.3,    2.1,    2.4,    2.5,    1.6,    0.8,    2.4,    2.6,    1.7,    2.1,    3.2,    3.7,    3.8,    3.7,    3.6,    3.9,    4.3,    4.8,    5.1,    5.2,    4.8,    4.5,    4.6
2001/03/17 19:40,  999.0,    7.9,   10.6,   11.7,   13.3,   13.8,   12.7,   11.9,   11.4,   10.7,   10.3,   10.3,    8.6,    8.7,    9.0,    9.1,    9.3,    9.0,    9.0,    8.9,    8.2,    7.7,    6.9,    6.1,    6.1,    6.3,    6.5,    6.7,    7.1,    7.1,    6.2,    5.6,    6.1,    5.9,    4.7,    3.0,    1.7,    1.5,    1.4,    1.3,    1.6,    2.4,    2.1,    1.3,    1.6,    2.3,    2.8,    2.9,    2.9,    2.8,    3.1,    3.5,    4.0,    4.4,    4.6,    4.4,    3.6,    3.5
2001/03/17 19:50,  999.0,   10.2,   11.1,   11.7,   11.7,   12.6,   11.6,   10.8,    9.8,    9.2,    8.8,    8.9,   10.3,   10.0,    9.8,    9.2,    8.6,    6.6,    5.8,    5.0,    4.3,    4.3,    4.8,    5.0,    5.6,    5.5,    5.7,    6.2,    6.1,    6.1,    5.8,    5.7,    5.5,    5.4,    4.2,    1.8,    0.1,   -1.3,   -1.1,   -0.5,   -0.1,    1.1,    1.2,    1.4,    2.5,    3.3,    3.8,    4.0,    3.8,    3.8,    4.0,    4.4,    4.9,    5.1,    4.9,    4.5,    4.3,    4.6
2001/03/17 20:00,  999.0,   -3.7,   -5.7,   -7.2,   -8.2,   -3.4,   -3.3,   -4.5,   -5.3,   -5.9,   -6.4,   -6.5,   -7.2,   -8.1,   -9.1,   -9.4,   -9.6,   -9.4,  -10.0,  -10.4,  -11.0,  -12.1,  -12.3,  -12.8,  -12.1,  -10.0,   -7.0,   -3.6,   -1.0,    0.9,    2.7,    3.4,    3.6,    7.4,  999.0,  999.0,  999.0,  999.0,  999.0,  999.0,  999.0,   -0.6,    0.9,    1.8,    2.5,    2.8,    3.1,    3.2,    3.5,    3.9,    4.3,    4.9,    5.2,    4.9,    4.3,    4.0,    3.8,    3.8
2001/03/17 20:10,  999.0,    6.9,    3.7,   14.4,    9.4,    0.0,    1.9,    3.9,    4.7,    6.8,    0.4,    1.0,   -2.9,   -4.3,   -9.8,   -9.9,  -10.6,  -10.9,  -12.0,  -13.2,  -14.4,  -15.6,  -16.0,  -15.6,  -16.0,  -14.4,  -14.4,  -12.6,  -11.9,   -9.8,   -7.0,   -8.5,   -7.9,   -8.9,   -9.0,  999.0,  999.0,  -10.4,  999.0,  999.0,  999.0,   -3.3,    0.8,    2.3,    3.1,    2.8,    2.6,    3.1,    3.6,    4.4,    5.4,    5.9,    5.9,    5.5,    5.0,    4.9,    4.9,    4.9
2001/03/17 20:20,  999.0,    7.3,   10.0,    9.8,    1.7,   -5.1,   -4.4,   -1.3,   -7.8,   -6.5,   -5.6,   -5.7,   -7.5,   -7.3,   -8.3,   -8.7,   -9.9,  -11.1,  -12.5,  -14.4,  -15.6,  -15.4,  -14.7,  -13.3,  -12.3,  -10.8,   -9.4,   -8.1,   -6.7,   -5.9,   -6.0,   -5.7,   -6.2,   -6.4,   -6.7,   -7.1,  999.0,  999.0,  999.0,  999.0,  999.0,  999.0,   -0.5,    1.0,    2.2,    2.7,    3.4,    3.6,    4.0,    4.8,    5.6,    6.2,    6.4,    6.1,    5.5,    5.3,    5.4,    5.4
2001/03/17 20:30,  999.0,    5.4,  999.0,    5.6,   -1.5,   -3.5,    0.6,    0.7,    0.5,   -0.6,   -0.4,   -2.5,   -4.1,   -7.5,   -8.2,   -9.6,  -10.7,  -12.4,  -14.2,  -14.7,  -14.6,  -14.9,  -14.1,  -13.4,   -9.7,   -6.2,   -2.2,   -0.2,    2.2,    3.2,    3.0,    2.6,    2.9,    4.2,    3.3,    5.4,    3.6,    1.8,    1.0,    0.6,    0.6,    2.0,    1.2,    0.9,    1.4,    2.5,    3.3,    3.7,    4.3,    5.4,    6.6,    7.4,    7.5,    6.3,    5.4,    5.4,    5.3,    5.1
2001/03/17 20:40,  999.0,   -3.4,   -5.2,   -8.7,  -10.0,   -9.8,   -7.7,   -6.5,   -5.1,   -3.6,   -4.6,    0.2,    0.1,   -0.3,   -0.2,   -0.1,   -0.4,   -0.4,   -0.1,    0.3,    1.0,    1.4,    2.5,    3.5,    4.4,    5.0,    5.6,    6.1,    6.6,    6.3,    6.0,    5.9,    6.8,    7.8,    7.6,    6.3,    4.1,    3.2,    2.0,    1.0,    0.8,  999.0,  999.0,    0.8,    1.7,    2.8,    3.8,    4.3,    5.1,    6.3,    7.1,    7.6,    7.2,    6.0,    5.4,    5.3,    5.0,    5.1
2001/03/17 20:50,  999.0,    7.5,    7.9,    7.8,    7.9,    9.1,   10.2,   10.6,    9.4,    7.9,    7.1,    7.1,    6.8,    6.8,    6.5,    5.7,    5.7,    5.6,    5.2,    5.3,    5.2,    5.1,    5.0,    5.4,    5.3,    5.8,    5.9,    6.6,    6.4,    6.3,    5.8,    5.4,    5.4,    6.2,    6.1,    5.2,    3.5,    2.2,    0.9,    1.0,    1.4,    2.4,    1.6,    0.7,    1.4,    2.5,    3.4,    4.0,    5.2,    6.3,    6.8,    7.2,    7.1,    6.1,    5.5,    5.2,    5.1,    4.7
2001/03/17 21:00,  999.0,   10.7,   11.7,   12.5,   13.4,   14.4,   14.4,   13.5,   12.6,   12.3,   11.8,   12.0,   11.1,   10.5,   10.3,    9.6,    8.8,    7.9,    7.4,    7.1,    6.8,    7.0,    6.5,    6.2,    6.0,    5.9,    5.8,    6.0,    5.6,    5.2,    5.0,    4.6,    4.2,    4.5,    4.3,    3.7,    2.6,    1.6,    1.1,    0.6,    0.3,    1.1,    0.5,   -0.3,    0.4,    1.1,    2.4,    3.2,    4.3,    5.3,    6.0,    6.5,    6.9,    6.7,    6.0,    5.5,    5.2,    5.0
2001/03/17 21:10,  999.0,    1.0,    1.4,    1.9,    2.1,    3.0,    3.3,    2.4,    2.7,    2.8,    3.0,    4.1,    4.4,    2.1,    7.5,    8.8,    8.4,    7.0,    6.5,    6.4,    6.5,    6.7,    6.6,    6.3,    6.3,    5.8,    6.3,    6.1,    6.4,    5.2,    5.3,    4.7,    4.8,    4.4,    4.9,    4.7,    3.8,    3.0,    2.0,    1.2,    1.6,    1.4,    1.5,    0.4,    0.4,    1.2,    2.5,    3.8,    4.5,    5.6,    6.4,    7.3,    8.0,    7.9,    7.2,    5.9,    5.5,    4.7
2001/03/17 21:20,  999.0,   -3.8,    1.3,    4.3,    4.5,    8.0,    8.5,    8.8,    8.8,    8.2,    8.1,    7.9,    9.6,    9.9,    9.2,    8.4,    8.2,    7.8,    7.4,    6.8,    6.4,    5.8,    5.5,    5.4,    5.2,    4.8,    5.1,    5.2,    5.2,    5.0,    4.7,    4.7,    4.6,    4.5,    5.1,    4.9,    4.1,    3.4,    2.3,    1.6,    1.7,    1.5,  999.0,   -0.5,    0.6,    1.9,    3.3,    4.8,    5.6,    6.4,    7.3,    8.0,    8.5,    8.3,    7.7,    6.6,    6.1,    5.5
2001/03/17 21:30,  999.0,    9.2,   10.1,   10.8,   12.2,   13.1,   13.8,   14.0,   13.6,   12.8,   12.1,   11.8,   11.2,   10.7,   10.1,    9.3,    8.5,    8.4,    8.0,    7.6,    7.2,    6.3,    6.2,    6.0,    5.7,    6.1,    6.1,    6.2,    6.1,    6.5,    6.5,    6.5,    6.6,    6.9,    7.2,    5.6,    3.7,    2.9,    2.4,    2.0,    1.7,    1.7,    0.4,   -0.6,    0.4,    1.7,    3.2,    4.9,    5.7,    6.3,    6.8,    7.6,    8.1,    8.0,    7.7,    6.3,    5.6,    5.1
2001/03/17 21:40,  999.0,    9.2,    9.7,   10.1,   10.6,   11.8,   12.8,   13.5,   12.8,   12.0,   11.5,   11.0,   10.5,    9.9,    9.7,    9.4,    8.9,    8.6,    8.1,    7.7,    7.2,    6.2,    6.1,    6.3,    5.9,    6.2,    6.3,    6.2,    6.0,    5.8,    6.1,    6.2,    5.9,    6.5,    5.9,    4.6,    2.5,    1.7,    1.8,    2.0,    1.8,    2.0,    1.7,  999.0,    0.5,    1.4,    3.1,    4.7,    5.4,    5.8,    6.4,    7.2,    7.8,    7.7,    7.7,    6.1,    5.3,    4.9
2001/03/17 21:50,  999.0,    9.0,    9.8,   10.2,   11.1,   12.2,   12.8,   13.0,   11.9,   11.1,   10.8,   10.6,   10.5,    9.7,    8.8,    8.7,    8.6,    8.1,    8.3,    7.4,    6.8,    5.8,    5.7,    5.4,    5.1,    5.3,    5.3,    5.2,    5.1,    4.8,    5.4,    5.7,    6.1,    6.2,    4.9,    3.4,    2.0,    1.8,    2.2,    2.3,    2.1,    2.3,    1.8,    0.5,    1.3,    2.5,    4.3,    5.7,    6.1,    6.3,    6.9,    7.3,    7.7,    7.9,    7.5,    5.8,    5.0,    4.5
2001/03/17 22:00,  999.0,    9.4,   10.4,   11.0,   11.6,   12.1,   12.6,   12.7,   12.0,   11.2,   10.6,   10.5,   10.1,    9.6,    8.9,    8.4,    8.2,    7.7,    7.4,    6.9,    6.1,    5.6,    5.9,    5.8,    5.8,    5.8,    5.5,    5.6,    5.4,    5.0,    5.3,    5.3,    5.6,    6.1,    5.8,    4.3,    3.4,    2.7,    2.3,    2.1,    1.8,    2.3,    2.7,    0.4,    1.2,    3.1,    5.3,    6.8,    6.4,    6.6,    7.2,    7.5,    7.7,    8.0,    8.1,    6.6,    5.3,    4.4
2001/03/17 22:10,  999.0,   10.2,   10.8,   11.0,   11.7,   12.6,   12.9,   12.2,    7.1,    5.8,    6.4,    4.3,    8.7,    5.7,    5.6,    6.3,    6.0,    7.3,    7.8,    9.2,    9.4,    7.6,    3.8,    9.5,    8.1,    7.8,    7.6,    7.9,    7.0,    6.6,    7.1,    7.3,  999.0,  999.0,    8.5,    1.8,  999.0,  999.0,  999.0,  999.0,  999.0,   -4.4,   -1.6,   -0.3,    1.3,    4.4,    5.7,    5.9,    6.4,    6.8,    7.2,    7.5,    7.0,    7.3,    7.5,    5.7,    4.5,    3.6
2001/03/17 22:20,  999.0,   10.0,   11.0,   11.6,   12.2,   13.0,   13.9,   13.0,   12.1,   11.9,   12.2,   11.8,   10.0,    9.1,    9.1,  999.0,  999.0,  999.0,    8.1,    8.7,   12.7,   13.3,  999.0,  999.0,  999.0,  999.0,   14.4,   13.1,  999.0,  999.0,  999.0,  999.0,    9.6,    9.0,    7.9,  999.0,  999.0,  999.0,  999.0,  999.0,  999.0,  999.0,  999.0,  999.0,  999.0,    4.1,    5.0,    5.2,    5.4,    5.9,    6.2,    6.8,    6.7,    6.3,    6.5,    5.6,    4.4,    3.3
2001/03/17 22:30,  999.0,   10.7,   11.4,   11.4,   12.3,   13.4,   13.4,   12.6,   11.9,   11.5,   11.3,   12.1,   11.4,   10.2,  999.0,  999.0,  999.0,  999.0,  999.0,  999.0,  999.0,  999.0,    6.8,    7.7,    8.1,  999.0,  999.0,  999.0,  999.0,  999.0,    6.0,    6.4,  999.0,  999.0,    6.5,  999.0,  999.0,  999.0,  999.0,  999.0,  999.0,  999.0,  999.0,  999.0,  999.0,    2.5,    3.9,    4.1,    4.6,    5.0,    5.8,    6.2,    5.9,    5.7,    5.8,    5.4,    4.0,    3.1
2001/03/17 22:40,  999.0,    7.3,   10.9,   11.7,   12.6,   13.4,   14.4,   13.7,   12.7,   12.5,   12.0,   11.7,   10.6,   10.4,  999.0,  999.0,    8.5,  999.0,  999.0,  999.0,    7.7,    5.2,    4.0,  999.0,    5.8,  999.0,    6.8,    6.3,  999.0,  999.0,  999.0,    5.6,  999.0,    5.7,  999.0,    6.4,  999.0,  999.0,  999.0,  999.0,  999.0,  999.0,  999.0,  999.0,  999.0,  999.0,  999.0,    5.2,    5.7,    6.7,    7.5,    6.6,    6.7,    6.6,    7.1,    7.7,    5.9,    4.8
2001/03/17 22:50,  999.0,   10.0,   10.5,   11.8,   12.9,   14.4,   13.7,   13.9,   13.4,   12.3,   11.3,    9.1,    9.8,   11.2,   10.7,   10.1,  999.0,  999.0,  999.0,  999.0,  999.0,  999.0,  999.0,    8.9,    7.8,  999.0,    6.5,  999.0,  999.0,  999.0,    5.5,    6.7,    7.0,    7.3,  999.0,  999.0,  999.0,  999.0,  999.0,  999.0,  999.0,  999.0,  999.0,  999.0,  999.0,  999.0,  999.0,  999.0,  999.0,    6.3,    6.3,    6.7,    6.9,    6.9,    6.9,    8.4,    7.5,  999.0
2001/03/17 23:00,  999.0,  999.0,  999.0,   12.5,   13.3,   14.2,   13.6,   13.7,   13.5,   12.7,   12.2,   11.8,   11.2,    9.4,    8.6,    8.4,    8.1,  999.0,  999.0,  999.0,  999.0,  999.0,  999.0,  999.0,  999.0,  999.0,    7.1,  999.0,    6.0,  999.0,  999.0,    6.1,    6.9,  999.0,  999.0,  999.0,  999.0,  999.0,  999.0,  999.0,  999.0,  999.0,  999.0,  999.0,  999.0,  999.0,  999.0,  999.0,  999.0,  999.0,  999.0,  999.0,  999.0,  999.0,  999.0,  999.0,  999.0,    5.1
2001/03/17 23:10,  999.0,  999.0,  999.0,   12.5,   13.3,   13.5,   13.6,   13.5,   13.2,   12.1,   12.3,   11.4,   11.0,   10.1,    8.1,    8.0,    7.6,    7.4,  999.0,  999.0,  999.0,  999.0,    8.5,  999.0,  999.0,  999.0,    6.3,  999.0,  999.0,  999.0,    5.0,    7.2,    7.4,  999.0,    8.9,  999.0,  999.0,  999.0,  999.0,  999.0,  999.0,    8.6,  999.0,  999.0,  999.0,  999.0,  999.0,  999.0,  999.0,  999.0,  999.0,  999.0,  999.0,  999.0,  999.0,  999.0,  999.0,    4.8
2001/03/17 23:20,  999.0,  999.0,  999.0,   12.4,   13.5,   13.4,   13.5,   13.6,   13.8,   12.9,   12.1,   11.8,   10.0,    9.3,    7.6,    6.6,    5.9,    6.8,    6.6,  999.0,  999.0,    5.1,    5.9,  999.0,  999.0,  999.0,  999.0,    5.9,  999.0,  999.0,  999.0,    5.1,  999.0,  999.0,    7.5,  999.0,  999.0,  999.0,  999.0,  999.0,  999.0,  999.0,  999.0,  999.0,  999.0,  999.0,  999.0,  999.0,  999.0,  999.0,  999.0,  999.0,  999.0,  999.0,  999.0,  999.0,    6.6,    6.5
2001/03/17 23:30,  999.0,  999.0,  999.0,  999.0,   13.8,   14.4,   13.9,   13.2,   12.8,   11.7,   11.7,   11.9,   11.1,    9.7,    8.4,    7.3,    5.7,    6.4,    7.5,    6.4,  999.0,  999.0,  999.0,  999.0,    6.5,    6.4,    6.4,  999.0,  999.0,  999.0,  999.0,  999.0,  999.0,  999.0,    6.7,  999.0,  999.0,  999.0,  999.0,  999.0,  999.0,  999.0,  999.0,  999.0,  999.0,  999.0,  999.0,  999.0,  999.0,  999.0,  999.0,  999.0,  999.0,  999.0,  999.0,    6.5,    6.9,    6.9
2001/03/17 23:40,  999.0,  999.0,  999.0,  999.0,   12.8,   14.1,   15.2,   13.9,   12.8,   11.4,   11.1,   10.7,   10.3,    9.8,    9.4,    8.2,  999.0,  999.0,    7.1,    8.8,    7.4,    5.8,    5.5,  999.0,    6.9,    7.4,    6.8,    6.9,  999.0,  999.0,  999.0,  999.0,  999.0,    7.7,    6.9,    7.4,  999.0,  999.0,  999.0,  999.0,  999.0,  999.0,  999.0,  999.0,  999.0,  999.0,  999.0,  999.0,  999.0,  999.0,  999.0,  999.0,  999.0,  999.0,    5.4,    7.0,    7.4,    7.2
2001/03/17 23:50,  999.0,  999.0,   10.7,   11.6,   12.6,   13.8,   14.8,   14.1,   13.2,   12.6,   11.5,   10.6,    9.5,    8.7,    8.1,    7.2,  999.0,  999.0,  999.0,  999.0,    8.6,  999.0,  999.0,  999.0,    6.6,    7.3,    7.4,    6.2,    6.7,  999.0,  999.0,  999.0,  999.0,    8.5,  999.0,  999.0,  999.0,  999.0,  999.0,  999.0,  999.0,  999.0,  999.0,  999.0,  999.0,  999.0,  999.0,  999.0,  999.0,  999.0,  999.0,  999.0,  999.0,  999.0,  999.0,    7.8,    8.0,    8.6
